M I D A S
Marine Information and Data Acquisition System
Tripno 2229 of the Zeeleeuw from 2011-08-22 06:36:04 to 2011-08-22 18:08:07
Back to CruiseResearch ActivitiesStationsMapUnderway DataData graphs

EquipmentUnitsComment
TimeDGPSUTC
LatitudeDGPSDM.mWGS84
LongitudeDGPSDM.mWGS84
TemperatureSBE03/SBE38deg celciusITS90
ConductivitySBE21S/mITS90
SalinitySBE21 Practical Salinity Units
ChlorophylAChelsea fluorimeterg/lCalibrated in Aceton
Missing or incorrect values are displayed as -999
Sea surface data collected by the RV Zeeleeuw from 2011-08-22 06:31:42 to 2011-08-22 18:06:41
                                                                                    Next 1000 lines
Time Latitude Longitude Temperature Conductivity Salinity ChlorophylA
2011-08-22 06:31:52 51°13.636 2°56.017 21.0522 0.01012 0.053781 -3.020363
2011-08-22 06:31:58 51°13.636 2°56.014 21.0573 0.01012 0.053781 -3.020363
2011-08-22 06:32:02 51°13.636 2°56.011 21.0676 0.01012 0.053781 -3.020363
2011-08-22 06:32:07 51°13.637 2°56.007 21.0643 0.01012 0.053782 -3.020363
2011-08-22 06:32:12 51°13.638 2°56.003 21.0789 0.01012 0.053782 -3.020363
2011-08-22 06:32:18 51°13.639 2°55.997 21.0678 0.01012 0.053782 -3.020363
2011-08-22 06:32:23 51°13.64 2°55.991 21.0648 0.01012 0.053782 -3.020363
2011-08-22 06:32:29 51°13.641 2°55.983 21.0734 0.01012 0.053783 -3.020363
2011-08-22 06:32:34 51°13.643 2°55.975 21.0789 0.01012 0.053783 -3.020363
2011-08-22 06:32:40 51°13.645 2°55.965 21.085 0.01012 0.053783 -3.020363
2011-08-22 06:32:46 51°13.647 2°55.955 21.0828 0.01012 0.053784 -3.020363
2011-08-22 06:32:50 51°13.649 2°55.948 21.0911 0.01012 0.053784 -3.020363
2011-08-22 06:32:56 51°13.651 2°55.937 21.0988 0.01012 0.053785 -3.020363
2011-08-22 06:33:01 51°13.653 2°55.928 21.0977 0.01012 0.053785 -3.020363
2011-08-22 06:33:06 51°13.655 2°55.918 21.0956 0.01012 0.053785 -3.020363
2011-08-22 06:33:10 51°13.657 2°55.911 21.0969 0.01012 0.053786 -3.020363
2011-08-22 06:33:16 51°13.66 2°55.899 21.0979 0.01012 0.053786 -3.020363
2011-08-22 06:33:21 51°13.662 2°55.89 21.0972 0.01012 0.053786 -3.020363
2011-08-22 06:33:26 51°13.665 2°55.881 21.0974 0.01012 0.053786 -3.020363
2011-08-22 06:33:30 51°13.667 2°55.874 21.0998 0.01012 0.053787 -3.020363
2011-08-22 06:33:36 51°13.671 2°55.863 21.0969 0.01012 0.053787 -3.020363
2011-08-22 06:33:41 51°13.674 2°55.855 21.0964 0.01012 0.053788 -3.020363
2011-08-22 06:33:46 51°13.677 2°55.846 21.0951 0.01012 0.053788 -3.020363
2011-08-22 06:33:50 51°13.68 2°55.839 21.0939 0.01012 0.053788 -3.020363
2011-08-22 06:33:56 51°13.685 2°55.829 21.096 0.01012 0.053788 -3.020363
2011-08-22 06:34:01 51°13.689 2°55.821 21.0939 0.01012 0.053789 -3.020363
2011-08-22 06:34:06 51°13.693 2°55.814 21.094 0.01012 0.053789 -3.020363
2011-08-22 06:34:10 51°13.695 2°55.807 21.0963 0.01012 0.05379 -3.020363
2011-08-22 06:34:16 51°13.7 2°55.798 21.0976 0.01012 0.05379 -3.020363
2011-08-22 06:34:21 51°13.704 2°55.79 21.0958 0.01012 0.05379 -3.020363
2011-08-22 06:34:26 51°13.707 2°55.783 21.0941 0.01012 0.053791 -3.020363
2011-08-22 06:34:30 51°13.71 2°55.777 21.093 0.01012 0.053792 -3.020363
2011-08-22 06:34:36 51°13.716 2°55.768 21.0957 0.01012 0.053792 -3.020363
2011-08-22 06:34:41 51°13.72 2°55.76 21.093 0.01012 0.053792 -3.020363
2011-08-22 06:34:46 51°13.724 2°55.752 21.1012 0.01012 0.053793 -3.020363
2011-08-22 06:34:50 51°13.727 2°55.746 21.1004 0.01012 0.053793 -3.020363
2011-08-22 06:34:56 51°13.731 2°55.737 21.106 0.01012 0.053793 -3.020363
2011-08-22 06:35:01 51°13.735 2°55.73 21.1053 0.01012 0.053793 -3.020363
2011-08-22 06:35:06 51°13.739 2°55.723 21.106 0.01012 0.053794 -3.020363
2011-08-22 06:35:10 51°13.742 2°55.718 21.1053 0.01012 0.053795 -3.020363
2011-08-22 06:35:16 51°13.746 2°55.71 21.1044 0.01012 0.053795 -3.020363
2011-08-22 06:35:21 51°13.75 2°55.704 21.103 0.01012 0.053795 -3.020363
2011-08-22 06:35:26 51°13.754 2°55.698 21.1044 0.01012 0.053796 -3.020363
2011-08-22 06:35:30 51°13.757 2°55.693 21.0868 0.01012 0.053796 -3.020363
2011-08-22 06:35:36 51°13.762 2°55.686 21.103 0.01012 0.053796 -3.020363
2011-08-22 06:35:41 51°13.768 2°55.68 21.085 0.01012 0.053797 -3.020363
2011-08-22 06:35:46 51°13.773 2°55.675 21.0958 0.01012 0.053797 -3.020363
2011-08-22 06:35:50 51°13.778 2°55.671 21.1009 0.01012 0.053797 -3.020363
2011-08-22 06:35:56 51°13.785 2°55.664 21.1019 0.01012 0.053797 -3.020363
2011-08-22 06:36:01 51°13.792 2°55.66 21.1035 0.01012 0.053798 -3.020363
2011-08-22 06:36:06 51°13.799 2°55.655 21.0958 0.01012 0.053799 -3.020363
2011-08-22 06:36:10 51°13.804 2°55.651 21.1102 0.01012 0.053799 -3.020363
2011-08-22 06:36:16 51°13.813 2°55.646 21.0979 0.01012 0.0538 -3.020363
2011-08-22 06:36:21 51°13.821 2°55.643 21.1014 0.01012 0.0538 -3.020363
2011-08-22 06:36:26 51°13.828 2°55.639 21.1075 0.01012 0.0538 -3.020363
2011-08-22 06:36:30 51°13.835 2°55.636 21.1042 0.01012 0.0538 -3.020363
2011-08-22 06:36:36 51°13.844 2°55.632 21.1017 0.01012 0.053802 -3.020363
2011-08-22 06:36:41 51°13.852 2°55.629 21.1216 0.01012 0.053802 -3.020363
2011-08-22 06:36:46 51°13.86 2°55.626 21.1024 0.01012 0.053802 -3.020363
2011-08-22 06:36:50 51°13.867 2°55.625 21.1121 0.01012 0.053802 -3.020363
2011-08-22 06:36:56 51°13.876 2°55.623 21.1237 0.01012 0.053803 -3.020363
2011-08-22 06:37:01 51°13.884 2°55.622 21.116 0.01012 0.053803 -3.020363
2011-08-22 06:37:06 51°13.891 2°55.622 21.113 0.01012 0.053804 -3.020363
2011-08-22 06:37:10 51°13.897 2°55.622 21.1134 0.01012 0.053804 -3.020363
2011-08-22 06:37:16 51°13.905 2°55.623 21.1074 0.01012 0.053804 -3.020363
2011-08-22 06:37:21 51°13.912 2°55.623 21.1137 0.01012 0.053804 -3.020363
2011-08-22 06:37:26 51°13.918 2°55.624 21.1131 0.01012 0.053805 -3.020363
2011-08-22 06:37:30 51°13.923 2°55.625 21.1137 0.01012 0.053805 -3.020363
2011-08-22 06:37:36 51°13.93 2°55.627 21.1123 0.01012 0.053806 -3.020363
2011-08-22 06:37:41 51°13.936 2°55.629 21.1084 0.01012 0.053806 -3.020363
2011-08-22 06:37:46 51°13.941 2°55.632 21.103 0.01012 0.053807 -3.020363
2011-08-22 06:37:50 51°13.945 2°55.634 21.1199 0.01012 0.053807 -3.020363
2011-08-22 06:37:56 51°13.951 2°55.637 21.1244 0.01012 0.053807 -3.020363
2011-08-22 06:38:01 51°13.956 2°55.639 21.1254 0.01012 0.053808 -3.020363
2011-08-22 06:38:06 51°13.96 2°55.642 21.1308 0.01012 0.053808 -3.020363
2011-08-22 06:38:10 51°13.963 2°55.644 21.1238 0.01012 0.053808 -3.020363
2011-08-22 06:38:16 51°13.967 2°55.647 21.1021 0.01012 0.053809 -3.020363
2011-08-22 06:38:21 51°13.97 2°55.649 21.1089 0.01012 0.053809 -3.020363
2011-08-22 06:38:25 51°13.972 2°55.65 21.1122 0.01012 0.05381 -3.020363
2011-08-22 06:38:30 51°13.974 2°55.652 21.1059 0.01012 0.05381 -3.020363
2011-08-22 06:38:35 51°13.975 2°55.653 21.1275 0.01012 0.053811 -3.020363
2011-08-22 06:38:40 51°13.976 2°55.653 21.1055 0.01012 0.053811 -3.020363
2011-08-22 06:38:45 51°13.976 2°55.652 21.102 0.01012 0.053811 -3.020363
2011-08-22 06:38:50 51°13.975 2°55.651 21.0902 0.01012 0.053811 -3.020363
2011-08-22 06:38:54 51°13.975 2°55.65 21.099 0.01012 0.053812 -3.020363
2011-08-22 06:38:59 51°13.975 2°55.647 21.1121 0.01012 0.053812 -3.020363
2011-08-22 06:39:04 51°13.974 2°55.644 21.0661 0.01012 0.053813 -3.020363
2011-08-22 06:39:09 51°13.974 2°55.64 21.0239 0.01012 0.053813 -3.020363
2011-08-22 06:39:14 51°13.974 2°55.635 20.9699 0.01012 0.053813 -3.020363
2011-08-22 06:39:18 51°13.973 2°55.63 21.0087 0.01012 0.053813 -3.020363
2011-08-22 06:39:23 51°13.974 2°55.624 20.9925 0.01012 0.053813 -3.020363
2011-08-22 06:39:28 51°13.974 2°55.618 20.9984 0.01012 0.053814 -3.020363
2011-08-22 06:39:33 51°13.976 2°55.611 21.0041 0.01012 0.053814 -3.020363
2011-08-22 06:39:38 51°13.978 2°55.604 20.9969 0.01012 0.053815 -3.020363
2011-08-22 06:39:43 51°13.98 2°55.597 21.0034 0.01012 0.053815 -3.020363
2011-08-22 06:39:48 51°13.983 2°55.59 21.0709 0.01012 0.053815 -3.020363
2011-08-22 06:39:53 51°13.988 2°55.583 21.0874 0.01012 0.053815 -3.020363
2011-08-22 06:39:58 51°13.992 2°55.576 21.0901 0.01012 0.053815 -3.020363
2011-08-22 06:40:02 51°13.996 2°55.569 21.0928 0.01012 0.053816 -3.020363
2011-08-22 06:40:07 51°14.002 2°55.561 21.0911 0.01012 0.053816 -3.020363
2011-08-22 06:40:12 51°14.008 2°55.553 21.0871 0.01012 0.053817 -3.020363
2011-08-22 06:40:18 51°14.017 2°55.542 21.089 0.01012 0.053817 -3.020363
2011-08-22 06:40:22 51°14.023 2°55.535 21.0847 0.01012 0.053817 -3.020363
2011-08-22 06:40:27 51°14.031 2°55.526 21.075 0.01012 0.053818 -3.020363
2011-08-22 06:40:32 51°14.04 2°55.516 21.0834 0.01012 0.053818 -3.020363
2011-08-22 06:40:38 51°14.051 2°55.505 21.0866 0.01012 0.053818 -3.020363
2011-08-22 06:40:42 51°14.059 2°55.497 21.0869 0.01012 0.053819 -3.020363
2011-08-22 06:40:47 51°14.069 2°55.487 21.0974 0.01012 0.053819 -3.020363
2011-08-22 06:40:52 51°14.079 2°55.477 21.0805 0.01012 0.053819 -3.020363
2011-08-22 06:40:58 51°14.092 2°55.465 21.0957 0.01012 0.05382 -3.020363
2011-08-22 06:41:02 51°14.101 2°55.457 21.0666 0.01012 0.05382 -3.020363
2011-08-22 06:41:07 51°14.112 2°55.446 21.0689 0.01012 0.053821 -3.020363
2011-08-22 06:41:12 51°14.124 2°55.436 21.078 0.01012 0.053821 -3.020363
2011-08-22 06:41:18 51°14.138 2°55.423 21.0764 0.01012 0.053821 -3.020363
2011-08-22 06:41:22 51°14.147 2°55.415 21.0734 0.01012 0.053822 -3.020363
2011-08-22 06:41:27 51°14.159 2°55.404 21.1021 0.01012 0.053822 -3.020363
2011-08-22 06:41:32 51°14.171 2°55.394 21.1004 0.01012 0.053822 -3.020363
2011-08-22 06:41:38 51°14.185 2°55.381 21.0921 0.01012 0.053823 -3.020363
2011-08-22 06:41:42 51°14.195 2°55.372 21.0912 0.01012 0.053824 -3.020363
2011-08-22 06:41:47 51°14.207 2°55.361 21.1019 0.01012 0.053824 -3.020363
2011-08-22 06:41:52 51°14.219 2°55.35 21.0928 0.01012 0.053824 -3.020363
2011-08-22 06:41:57 51°14.23 2°55.338 21.0819 0.01012 0.053825 -3.020363
2011-08-22 06:42:02 51°14.242 2°55.327 21.0928 0.01012 0.053825 -3.020363
2011-08-22 06:42:07 51°14.254 2°55.316 21.1227 0.01012 0.053826 -3.020363
2011-08-22 06:42:12 51°14.266 2°55.304 21.0585 0.01012 0.053827 -3.020363
2011-08-22 06:42:17 51°14.278 2°55.291 21.0663 0.01012 0.053827 -3.020363
2011-08-22 06:42:22 51°14.289 2°55.28 21.0703 0.01012 0.053828 -3.020363
2011-08-22 06:42:27 51°14.301 2°55.268 21.1046 0.01012 0.053828 -3.020363
2011-08-22 06:42:32 51°14.313 2°55.256 21.0781 0.01012 0.053829 -3.020363
2011-08-22 06:42:38 51°14.328 2°55.241 21.0967 0.01012 0.05383 -3.020363
2011-08-22 06:42:42 51°14.337 2°55.232 21.1106 0.01012 0.053831 -3.020363
2011-08-22 06:42:47 51°14.349 2°55.22 21.094 0.01012 0.053831 -3.020363
2011-08-22 06:42:52 51°14.361 2°55.208 21.0642 0.01012 0.053832 -3.020363
2011-08-22 06:42:57 51°14.373 2°55.196 21.0848 0.01012 0.053833 -3.020363
2011-08-22 06:43:02 51°14.385 2°55.184 21.106 0.01012 0.053834 -3.020363
2011-08-22 06:43:07 51°14.397 2°55.172 21.1138 0.01012 0.053835 -3.020363
2011-08-22 06:43:12 51°14.41 2°55.16 21.1024 0.01012 0.053836 -3.020363
2011-08-22 06:43:17 51°14.422 2°55.148 21.0931 0.01012 0.053836 -3.020363
2011-08-22 06:43:22 51°14.435 2°55.135 21.1121 0.01012 0.053837 -3.020363
2011-08-22 06:43:27 51°14.448 2°55.122 21.1191 0.01012 0.053839 -3.020363
2011-08-22 06:43:32 51°14.46 2°55.11 21.1206 0.01012 0.05384 -3.020363
2011-08-22 06:43:37 51°14.473 2°55.096 21.0992 0.01012 0.053842 -3.020363
2011-08-22 06:43:42 51°14.486 2°55.083 21.1067 0.01012 0.053843 -3.020363
2011-08-22 06:43:47 51°14.499 2°55.069 21.0982 0.01012 0.053843 -3.020363
2011-08-22 06:43:52 51°14.512 2°55.056 21.0939 0.01012 0.053844 -3.020363
2011-08-22 06:43:57 51°14.526 2°55.041 21.1119 0.01012 0.053846 -3.020363
2011-08-22 06:44:02 51°14.54 2°55.028 21.0973 0.01012 0.053847 -3.020363
2011-08-22 06:44:07 51°14.554 2°55.014 21.108 0.01012 0.053849 -3.020363
2011-08-22 06:44:12 51°14.568 2°55 21.0915 0.01012 0.05385 -3.020363
2011-08-22 06:44:17 51°14.582 2°54.986 21.0937 0.01012 0.05385 -3.020363
2011-08-22 06:44:22 51°14.597 2°54.972 21.118 0.01012 0.053852 -3.020363
2011-08-22 06:44:27 51°14.611 2°54.958 21.0736 0.01012 0.053853 -3.020363
2011-08-22 06:44:32 51°14.626 2°54.942 21.1093 0.01012 0.053855 -3.020363
2011-08-22 06:44:37 51°14.64 2°54.927 21.0868 0.01012 0.053857 -3.020363
2011-08-22 06:44:42 51°14.655 2°54.912 21.1055 0.01012 0.053859 -3.020363
2011-08-22 06:44:47 51°14.669 2°54.896 21.095 0.01012 0.053859 -3.020363
2011-08-22 06:44:52 51°14.683 2°54.88 21.0817 0.01012 0.05386 -3.020363
2011-08-22 06:44:57 51°14.697 2°54.864 21.0377 0.01012 0.053862 -3.020363
2011-08-22 06:45:02 51°14.712 2°54.849 21.1056 0.01012 0.053864 -3.020363
2011-08-22 06:45:07 51°14.727 2°54.834 21.1014 0.01012 0.053866 -3.020363
2011-08-22 06:45:12 51°14.741 2°54.82 21.0919 0.01012 0.053868 -3.020363
2011-08-22 06:45:17 51°14.755 2°54.804 21.0637 0.01012 0.053868 -3.020363
2011-08-22 06:45:22 51°14.77 2°54.789 21.0868 0.01012 0.05387 -3.020363
2011-08-22 06:45:27 51°14.784 2°54.773 21.1093 0.01012 0.053871 -3.020363
2011-08-22 06:45:32 51°14.798 2°54.757 21.0753 0.01012 0.053874 -3.020363
2011-08-22 06:45:37 51°14.812 2°54.741 21.08 0.01012 0.053876 -3.020363
2011-08-22 06:45:42 51°14.826 2°54.725 21.0933 0.01012 0.053877 -3.020363
2011-08-22 06:45:47 51°14.839 2°54.709 21.0812 0.01012 0.053877 -3.020363
2011-08-22 06:45:52 51°14.853 2°54.693 21.0973 0.01012 0.05388 -3.020363
2011-08-22 06:45:57 51°14.867 2°54.677 21.0842 0.01012 0.053882 -3.020363
2011-08-22 06:46:02 51°14.881 2°54.661 21.0739 0.01012 0.053884 -3.020363
2011-08-22 06:46:07 51°14.895 2°54.644 21.0697 0.01012 0.053886 -3.020363
2011-08-22 06:46:12 51°14.909 2°54.628 21.0921 0.01012 0.053888 -3.020363
2011-08-22 06:46:17 51°14.923 2°54.612 21.0876 0.01012 0.053888 -3.020363
2011-08-22 06:46:22 51°14.936 2°54.595 21.066 0.01012 0.053891 -3.020363
2011-08-22 06:46:27 51°14.95 2°54.579 21.0848 0.01012 0.053893 -3.020363
2011-08-22 06:46:32 51°14.963 2°54.562 21.0789 0.01012 0.053895 -3.020363
2011-08-22 06:46:37 51°14.977 2°54.545 21.0724 0.01012 0.053898 -3.020363
2011-08-22 06:46:42 51°14.991 2°54.529 21.1087 0.01012 0.053901 -3.020363
2011-08-22 06:46:47 51°15.004 2°54.512 21.0951 0.01012 0.053901 -3.020363
2011-08-22 06:46:52 51°15.017 2°54.495 21.0946 0.01012 0.053903 -3.020363
2011-08-22 06:46:57 51°15.03 2°54.478 21.1018 0.01012 0.053906 -3.020363
2011-08-22 06:47:02 51°15.043 2°54.46 21.1006 0.01012 0.053909 -3.020363
2011-08-22 06:47:06 51°15.054 2°54.445 21.0995 0.01012 0.053912 -3.020363
2011-08-22 06:47:12 51°15.069 2°54.423 21.0665 0.01012 0.053915 -3.020363
2011-08-22 06:47:17 51°15.081 2°54.405 21.093 0.01012 0.053915 -3.020363
2011-08-22 06:47:22 51°15.094 2°54.387 21.0836 0.01012 0.053917 -3.020363
2011-08-22 06:47:27 51°15.107 2°54.369 21.0784 0.01012 0.05392 -3.020363
2011-08-22 06:47:32 51°15.12 2°54.351 21.0562 0.01012 0.053923 -3.020363
2011-08-22 06:47:37 51°15.133 2°54.334 21.094 0.01012 0.053926 -3.020363
2011-08-22 06:47:42 51°15.146 2°54.317 21.0829 0.01012 0.053928 -3.020363
2011-08-22 06:47:47 51°15.159 2°54.3 21.0756 0.01012 0.053928 -3.020363
2011-08-22 06:47:52 51°15.173 2°54.282 21.0864 0.01012 0.053931 -3.020363
2011-08-22 06:47:57 51°15.186 2°54.265 21.08 0.01012 0.053934 -3.020363
2011-08-22 06:48:02 51°15.199 2°54.249 21.0912 0.01012 0.053936 -3.020363
2011-08-22 06:48:07 51°15.213 2°54.232 21.0888 0.01012 0.053939 -3.020363
2011-08-22 06:48:11 51°15.224 2°54.218 21.0927 0.01012 0.053942 -3.020363
2011-08-22 06:48:17 51°15.24 2°54.198 21.1007 0.01012 0.053942 -3.020363
2011-08-22 06:48:22 51°15.253 2°54.181 21.1058 0.01012 0.053945 -3.020363
2011-08-22 06:48:26 51°15.264 2°54.167 21.0869 0.01012 0.053948 -3.020363
2011-08-22 06:48:32 51°15.28 2°54.147 21.088 0.01012 0.053951 -3.020363
2011-08-22 06:48:37 51°15.293 2°54.129 21.0929 0.01012 0.053953 -3.020363
2011-08-22 06:48:42 51°15.306 2°54.112 21.0959 0.01012 0.053955 -3.020363
2011-08-22 06:48:47 51°15.32 2°54.095 21.0891 0.01012 0.053955 -3.020363
2011-08-22 06:48:51 51°15.331 2°54.081 21.0815 0.01012 0.053958 -3.020363
2011-08-22 06:48:57 51°15.347 2°54.06 21.0976 0.01012 0.053961 -3.020363
2011-08-22 06:49:02 51°15.36 2°54.043 21.0893 0.01012 0.053964 -3.020363
2011-08-22 06:49:07 51°15.373 2°54.025 21.0598 0.01012 0.053966 -3.020363
2011-08-22 06:49:12 51°15.387 2°54.008 21.071 0.01012 0.053969 -3.020363
2011-08-22 06:49:17 51°15.4 2°53.991 21.0748 0.01012 0.053969 -3.020363
2011-08-22 06:49:22 51°15.414 2°53.974 21.0642 0.01012 0.053972 -3.020363
2011-08-22 06:49:27 51°15.429 2°53.958 21.0618 0.01012 0.053975 -3.020363
2011-08-22 06:49:32 51°15.443 2°53.942 21.0769 0.01012 0.053977 -3.020363
2011-08-22 06:49:37 51°15.457 2°53.926 21.0739 0.01012 0.05398 -3.020363
2011-08-22 06:49:42 51°15.471 2°53.91 21.0853 0.01012 0.053983 -3.020363
2011-08-22 06:49:46 51°15.483 2°53.898 21.0783 0.01012 0.053983 -3.020363
2011-08-22 06:49:52 51°15.5 2°53.88 21.0916 0.01012 0.053986 -3.020363
2011-08-22 06:49:57 51°15.514 2°53.864 21.0909 0.01012 0.053989 -3.020363
2011-08-22 06:50:02 51°15.528 2°53.848 21.0851 0.01012 0.053991 -3.020363
2011-08-22 06:50:07 51°15.542 2°53.832 21.1024 0.01012 0.053994 -3.020363
2011-08-22 06:50:12 51°15.556 2°53.815 21.068 0.01012 0.053997 -3.020363
2011-08-22 06:50:17 51°15.569 2°53.797 21.0957 0.01012 0.053997 -3.020363
2011-08-22 06:50:22 51°15.583 2°53.78 21.0916 0.01012 0.054 -3.020363
2011-08-22 06:50:27 51°15.596 2°53.763 21.1006 0.01012 0.054002 -3.020363
2011-08-22 06:50:32 51°15.609 2°53.745 21.0945 0.01012 0.054005 -3.020363
2011-08-22 06:50:37 51°15.622 2°53.727 21.0865 0.01012 0.054008 -3.020363
2011-08-22 06:50:42 51°15.635 2°53.708 21.0812 0.01012 0.054011 -3.020363
2011-08-22 06:50:47 51°15.648 2°53.689 21.0696 0.01012 0.054011 -3.020363
2011-08-22 06:50:52 51°15.66 2°53.67 21.0953 0.01012 0.054014 -3.020363
2011-08-22 06:50:57 51°15.673 2°53.652 21.075 0.01012 0.054017 -3.020363
2011-08-22 06:51:02 51°15.686 2°53.634 21.075 0.01012 0.054019 -3.020363
2011-08-22 06:51:07 51°15.699 2°53.615 21.0399 0.01012 0.054022 -3.020363
2011-08-22 06:51:12 51°15.712 2°53.597 21.0587 0.01012 0.054025 -3.020363
2011-08-22 06:51:17 51°15.726 2°53.582 21.0492 0.01012 0.054025 -3.020363
2011-08-22 06:51:22 51°15.74 2°53.566 21.0786 0.01012 0.054027 -3.020363
2011-08-22 06:51:27 51°15.755 2°53.552 21.0803 0.01012 0.05403 -3.020363
2011-08-22 06:51:32 51°15.77 2°53.537 21.0751 0.01012 0.054033 -3.020363
2011-08-22 06:51:37 51°15.785 2°53.524 21.0784 0.01012 0.054036 -3.020363
2011-08-22 06:51:42 51°15.801 2°53.511 21.0671 0.01012 0.054038 -3.020363
2011-08-22 06:51:47 51°15.816 2°53.498 21.0754 0.01012 0.054038 -3.020363
2011-08-22 06:51:52 51°15.832 2°53.487 21.0841 0.01012 0.054041 -3.020363
2011-08-22 06:51:57 51°15.848 2°53.475 21.0858 0.01012 0.054044 -3.020363
2011-08-22 06:52:02 51°15.864 2°53.463 21.0857 0.01012 0.054046 -3.020363
2011-08-22 06:52:06 51°15.876 2°53.454 21.0911 0.01012 0.054049 -3.020363
2011-08-22 06:52:12 51°15.896 2°53.442 21.0931 0.01012 0.054052 -3.020363
2011-08-22 06:52:17 51°15.912 2°53.432 21.098 0.01012 0.054052 -3.020363
2011-08-22 06:52:22 51°15.929 2°53.422 21.0968 0.01012 0.054054 -3.020363
2011-08-22 06:52:26 51°15.941 2°53.413 21.0999 0.01012 0.054057 -3.020363
2011-08-22 06:52:32 51°15.961 2°53.399 21.0915 0.01012 0.054059 -3.020363
2011-08-22 06:52:37 51°15.977 2°53.388 21.0868 0.01012 0.054062 -3.020363
2011-08-22 06:52:42 51°15.993 2°53.377 21.1039 0.01012 0.054065 -3.020363
2011-08-22 06:52:47 51°16.009 2°53.366 21.0905 0.01012 0.054065 -3.020363
2011-08-22 06:52:52 51°16.025 2°53.355 21.1062 0.01012 0.054067 -3.020363
2011-08-22 06:52:57 51°16.041 2°53.344 21.095 0.01012 0.05407 -3.020363
2011-08-22 06:53:02 51°16.058 2°53.333 21.0913 0.01012 0.054072 -3.020363
2011-08-22 06:53:07 51°16.074 2°53.322 21.107 0.01012 0.054074 -3.020363
2011-08-22 06:53:12 51°16.089 2°53.311 21.1059 0.01012 0.054076 -3.020363
2011-08-22 06:53:17 51°16.106 2°53.299 21.1114 0.01012 0.054076 -3.020363
2011-08-22 06:53:22 51°16.122 2°53.288 21.1006 0.01012 0.054079 -3.020363
2011-08-22 06:53:27 51°16.137 2°53.276 21.1136 0.01012 0.054082 -3.020363
2011-08-22 06:53:32 51°16.153 2°53.264 21.1044 0.01012 0.054084 -3.020363
2011-08-22 06:53:37 51°16.169 2°53.252 21.1057 0.01012 0.054086 -3.020363
2011-08-22 06:53:42 51°16.185 2°53.24 21.1146 0.01012 0.054089 -3.020363
2011-08-22 06:53:47 51°16.2 2°53.228 21.1156 0.01012 0.054089 -3.020363
2011-08-22 06:53:52 51°16.216 2°53.216 21.127 0.01012 0.054092 -3.020363
2011-08-22 06:53:57 51°16.231 2°53.203 21.1121 0.01012 0.054094 -3.020363
2011-08-22 06:54:02 51°16.247 2°53.189 21.0959 0.01012 0.054097 -3.020363
2011-08-22 06:54:07 51°16.262 2°53.176 21.1165 0.010017 0.053612 -3.020363
2011-08-22 06:54:12 51°16.277 2°53.163 21.1189 0.010017 0.053616 -3.020363
2011-08-22 06:54:17 51°16.292 2°53.15 21.0936 0.010017 0.053616 -3.020363
2011-08-22 06:54:22 51°16.307 2°53.135 21.1058 0.010017 0.053618 -3.020363
2011-08-22 06:54:27 51°16.322 2°53.121 21.1139 0.01012 0.054108 -3.020363
2011-08-22 06:54:32 51°16.337 2°53.108 21.0946 0.01012 0.054111 -3.020363
2011-08-22 06:54:37 51°16.352 2°53.095 21.0965 0.010017 0.053626 -3.020363
2011-08-22 06:54:42 51°16.368 2°53.082 21.1042 0.010017 0.053629 -3.020363
2011-08-22 06:54:47 51°16.383 2°53.069 21.1018 0.010017 0.053629 -3.020363
2011-08-22 06:54:52 51°16.399 2°53.056 21.0788 0.010017 0.053632 -3.020363
2011-08-22 06:54:57 51°16.415 2°53.044 21.1046 0.010017 0.053635 -3.020363
2011-08-22 06:55:02 51°16.43 2°53.032 21.1129 0.010017 0.053638 -3.020363
2011-08-22 06:55:07 51°16.446 2°53.021 21.1075 0.010017 0.053641 -3.020363
2011-08-22 06:55:11 51°16.459 2°53.012 21.115 0.010017 0.053643 -3.020363
2011-08-22 06:55:17 51°16.479 2°52.998 21.1228 0.010017 0.053643 -3.020363
2011-08-22 06:55:22 51°16.495 2°52.987 21.1105 0.010017 0.053646 -3.020363
2011-08-22 06:55:27 51°16.511 2°52.975 21.1267 0.010017 0.05365 -3.020363
2011-08-22 06:55:32 51°16.527 2°52.963 21.1314 0.010017 0.053653 -3.020363
2011-08-22 06:55:37 51°16.542 2°52.951 21.1239 0.010017 0.053656 -3.020363
2011-08-22 06:55:42 51°16.558 2°52.938 21.1105 0.010017 0.053659 -3.020363
2011-08-22 06:55:47 51°16.573 2°52.924 21.1126 0.010017 0.053659 -3.020363
2011-08-22 06:55:52 51°16.588 2°52.91 21.1219 0.010017 0.053662 -3.020363
2011-08-22 06:55:57 51°16.603 2°52.897 21.1152 0.010017 0.053665 -3.020363
2011-08-22 06:56:02 51°16.618 2°52.883 21.1228 0.010017 0.053668 -3.020363
2011-08-22 06:56:07 51°16.633 2°52.87 21.124 0.010017 0.053671 -3.020363
2011-08-22 06:56:12 51°16.648 2°52.856 21.1147 0.010017 0.053673 -3.020363
2011-08-22 06:56:17 51°16.663 2°52.842 21.1195 0.010017 0.053673 -3.020363
2011-08-22 06:56:22 51°16.679 2°52.829 21.1261 0.010017 0.053677 -3.020363
2011-08-22 06:56:26 51°16.691 2°52.818 21.1214 0.010017 0.053679 -3.020363
2011-08-22 06:56:32 51°16.709 2°52.803 21.1333 0.010017 0.053682 -3.020363
2011-08-22 06:56:37 51°16.724 2°52.789 21.1249 0.010017 0.053685 -3.020363
2011-08-22 06:56:42 51°16.74 2°52.776 21.1315 0.010017 0.053688 -3.020363
2011-08-22 06:56:47 51°16.755 2°52.763 21.1315 0.010017 0.053688 -3.020363
2011-08-22 06:56:52 51°16.77 2°52.749 21.1157 0.010017 0.05369 -3.020363
2011-08-22 06:56:57 51°16.785 2°52.736 21.1302 0.010017 0.053693 -3.020363
2011-08-22 06:57:02 51°16.8 2°52.723 21.1179 0.010017 0.053696 -3.020363
2011-08-22 06:57:07 51°16.815 2°52.71 21.132 0.010017 0.053698 -3.020363
2011-08-22 06:57:12 51°16.83 2°52.696 21.1403 0.010017 0.0537 -3.020363
2011-08-22 06:57:17 51°16.845 2°52.683 21.1177 0.010017 0.0537 -3.020363
2011-08-22 06:57:22 51°16.86 2°52.669 21.1327 0.010017 0.053703 -3.020363
2011-08-22 06:57:27 51°16.875 2°52.655 21.1364 0.010017 0.053706 -3.020363
2011-08-22 06:57:32 51°16.89 2°52.642 21.112 0.010017 0.053708 -3.020363
2011-08-22 06:57:37 51°16.906 2°52.629 21.1245 0.010017 0.05371 -3.020363
2011-08-22 06:57:42 51°16.921 2°52.615 21.1245 0.010017 0.053712 -3.020363
2011-08-22 06:57:47 51°16.936 2°52.602 21.1379 0.010017 0.053712 -3.020363
2011-08-22 06:57:52 51°16.952 2°52.59 21.1286 0.010017 0.053715 -3.020363
2011-08-22 06:57:57 51°16.967 2°52.577 21.1307 0.010017 0.053716 -3.020363
2011-08-22 06:58:02 51°16.983 2°52.565 21.1317 0.010017 0.053719 -3.020363
2011-08-22 06:58:07 51°16.999 2°52.553 21.1375 0.010017 0.053721 -3.020363
2011-08-22 06:58:12 51°17.014 2°52.541 21.134 0.010017 0.053723 -3.020363
2011-08-22 06:58:17 51°17.03 2°52.529 21.1263 0.010017 0.053723 -3.020363
2011-08-22 06:58:22 51°17.046 2°52.517 21.1326 0.010017 0.053726 -3.020363
2011-08-22 06:58:27 51°17.062 2°52.506 21.1315 0.010017 0.053728 -3.020363
2011-08-22 06:58:32 51°17.078 2°52.494 21.1228 0.010017 0.05373 -3.020363
2011-08-22 06:58:37 51°17.094 2°52.483 21.1428 0.010017 0.053732 -3.020363
2011-08-22 06:58:42 51°17.11 2°52.472 21.136 0.010017 0.053735 -3.020363
2011-08-22 06:58:46 51°17.123 2°52.463 21.1441 0.010017 0.053735 -3.020363
2011-08-22 06:58:52 51°17.142 2°52.45 21.1523 0.010017 0.053736 -3.020363
2011-08-22 06:58:57 51°17.158 2°52.439 21.1401 0.010017 0.053739 -3.020363
2011-08-22 06:59:02 51°17.174 2°52.427 21.1425 0.010017 0.053741 -3.020363
2011-08-22 06:59:07 51°17.19 2°52.416 21.1458 0.010017 0.053743 -3.020363
2011-08-22 06:59:12 51°17.205 2°52.403 21.1438 0.010017 0.053745 -3.020363
2011-08-22 06:59:17 51°17.221 2°52.391 21.1494 0.010017 0.053745 -3.020363
2011-08-22 06:59:22 51°17.237 2°52.379 21.1592 0.010017 0.053748 -3.020363
2011-08-22 06:59:27 51°17.253 2°52.366 21.1559 0.010017 0.053749 -3.020363
2011-08-22 06:59:32 51°17.268 2°52.353 21.1444 0.010017 0.053752 -3.020363
2011-08-22 06:59:37 51°17.283 2°52.338 21.1533 0.010017 0.053754 -3.020363
2011-08-22 06:59:42 51°17.298 2°52.324 21.1375 0.010017 0.053756 -3.020363
2011-08-22 06:59:47 51°17.312 2°52.309 21.1403 0.010017 0.053756 -3.020363
2011-08-22 06:59:52 51°17.327 2°52.294 21.1328 0.010017 0.053758 -3.020363
2011-08-22 06:59:57 51°17.341 2°52.279 21.1346 0.010017 0.05376 -3.020363
2011-08-22 07:00:02 51°17.356 2°52.264 21.1394 0.010017 0.053763 -3.020363
2011-08-22 07:00:07 51°17.371 2°52.25 21.1276 0.010017 0.053765 -3.020363
2011-08-22 07:00:12 51°17.386 2°52.236 21.1414 0.010017 0.053767 -3.020363
2011-08-22 07:00:17 51°17.402 2°52.223 21.1247 0.010017 0.053767 -3.020363
2011-08-22 07:00:22 51°17.417 2°52.209 21.148 0.010017 0.053769 -3.020363
2011-08-22 07:00:27 51°17.433 2°52.196 21.1558 0.010017 0.053771 -3.020363
2011-08-22 07:00:32 51°17.448 2°52.183 21.1732 0.010017 0.053774 -3.020363
2011-08-22 07:00:37 51°17.463 2°52.169 21.1563 0.010017 0.053776 -3.020363
2011-08-22 07:00:42 51°17.477 2°52.153 21.1544 0.010017 0.053778 -3.020363
2011-08-22 07:00:47 51°17.491 2°52.137 21.1683 0.010017 0.053778 -3.020363
2011-08-22 07:00:52 51°17.505 2°52.12 21.1751 0.010017 0.05378 -3.020363
2011-08-22 07:00:57 51°17.518 2°52.103 21.1745 0.010017 0.053783 -3.020363
2011-08-22 07:01:02 51°17.531 2°52.084 21.1424 0.010017 0.053786 -3.020363
2011-08-22 07:01:06 51°17.54 2°52.068 21.159 0.010017 0.053788 -3.020363
2011-08-22 07:01:11 51°17.552 2°52.049 21.145 0.010017 0.053789 -3.020363
2011-08-22 07:01:17 51°17.566 2°52.024 21.1607 0.010017 0.053789 -3.020363
2011-08-22 07:01:22 51°17.578 2°52.004 21.1591 0.010017 0.053792 -3.020363
2011-08-22 07:01:26 51°17.587 2°51.987 21.1606 0.010017 0.053793 -3.020363
2011-08-22 07:01:32 51°17.6 2°51.961 21.1497 0.010017 0.053796 -3.020363
2011-08-22 07:01:37 51°17.61 2°51.939 21.1483 0.010017 0.053798 -3.020363
2011-08-22 07:01:42 51°17.621 2°51.918 21.153 0.010017 0.0538 -3.020363
2011-08-22 07:01:47 51°17.631 2°51.896 21.1545 0.010017 0.0538 -3.020363
2011-08-22 07:01:51 51°17.64 2°51.879 21.1626 0.010017 0.053802 -3.020363
2011-08-22 07:01:57 51°17.652 2°51.852 21.153 0.010017 0.053805 -3.020363
2011-08-22 07:02:02 51°17.663 2°51.831 21.1587 0.010017 0.053806 -3.020363
2011-08-22 07:02:07 51°17.673 2°51.809 21.1494 0.010017 0.053808 -3.020363
2011-08-22 07:02:12 51°17.684 2°51.787 21.1447 0.010017 0.05381 -3.020363
2011-08-22 07:02:17 51°17.695 2°51.765 21.1669 0.010017 0.05381 -3.020363
2011-08-22 07:02:22 51°17.707 2°51.744 21.1515 0.010017 0.053812 -3.020363
2011-08-22 07:02:27 51°17.718 2°51.723 21.1651 0.010017 0.053814 -3.020363
2011-08-22 07:02:32 51°17.73 2°51.703 21.1663 0.010017 0.053816 -3.020363
2011-08-22 07:02:37 51°17.741 2°51.682 21.1622 0.010017 0.053818 -3.020363
2011-08-22 07:02:42 51°17.753 2°51.661 21.1501 0.010017 0.05382 -3.020363
2011-08-22 07:02:47 51°17.764 2°51.641 21.1693 0.010017 0.05382 -3.020363
2011-08-22 07:02:52 51°17.776 2°51.62 21.1622 0.010017 0.053822 -3.020363
2011-08-22 07:02:57 51°17.788 2°51.6 21.1446 0.010017 0.053824 -3.020363
2011-08-22 07:03:02 51°17.799 2°51.579 21.1682 0.010017 0.053825 -3.020363
2011-08-22 07:03:07 51°17.811 2°51.56 21.1562 0.010017 0.053828 -3.020363
2011-08-22 07:03:12 51°17.824 2°51.54 21.1657 0.010017 0.05383 -3.020363
2011-08-22 07:03:17 51°17.836 2°51.52 21.158 0.010017 0.05383 -3.020363
2011-08-22 07:03:22 51°17.848 2°51.501 21.1483 0.010017 0.053831 -3.020363
2011-08-22 07:03:27 51°17.861 2°51.482 21.1676 0.010017 0.053833 -3.020363
2011-08-22 07:03:31 51°17.872 2°51.468 21.1794 0.010017 0.053835 -3.020363
2011-08-22 07:03:37 51°17.887 2°51.446 21.1721 0.010017 0.053836 -3.020363
2011-08-22 07:03:42 51°17.901 2°51.428 21.1796 0.010017 0.053839 -3.020363
2011-08-22 07:03:47 51°17.914 2°51.41 21.169 0.010017 0.053839 -3.020363
2011-08-22 07:03:52 51°17.927 2°51.391 21.1778 0.010017 0.05384 -3.020363
2011-08-22 07:03:57 51°17.94 2°51.373 21.1799 0.010017 0.053842 -3.020363
2011-08-22 07:04:02 51°17.952 2°51.355 21.1801 0.010017 0.053844 -3.020363
2011-08-22 07:04:07 51°17.965 2°51.336 21.1803 0.010017 0.053846 -3.020363
2011-08-22 07:04:12 51°17.978 2°51.317 21.1685 0.010017 0.053848 -3.020363
2011-08-22 07:04:17 51°17.99 2°51.298 21.1923 0.010017 0.053848 -3.020363
2011-08-22 07:04:22 51°18.003 2°51.279 21.1732 0.010017 0.053849 -3.020363
2011-08-22 07:04:27 51°18.015 2°51.26 21.187 0.010017 0.053852 -3.020363
2011-08-22 07:04:32 51°18.027 2°51.24 21.1915 0.010017 0.053853 -3.020363
2011-08-22 07:04:37 51°18.039 2°51.221 21.1981 0.010017 0.053855 -3.020363
2011-08-22 07:04:42 51°18.051 2°51.201 21.1825 0.010017 0.053857 -3.020363
2011-08-22 07:04:47 51°18.063 2°51.181 21.1973 0.010017 0.053857 -3.020363
2011-08-22 07:04:52 51°18.075 2°51.161 21.1838 0.010017 0.053859 -3.020363
2011-08-22 07:04:57 51°18.086 2°51.14 21.1952 0.010017 0.053861 -3.020363
2011-08-22 07:05:02 51°18.097 2°51.12 21.1875 0.010017 0.053862 -3.020363
2011-08-22 07:05:07 51°18.108 2°51.099 21.1934 0.010017 0.053864 -3.020363
2011-08-22 07:05:12 51°18.119 2°51.078 21.1827 0.010017 0.053866 -3.020363
2011-08-22 07:05:17 51°18.13 2°51.057 21.1864 0.010017 0.053866 -3.020363
2011-08-22 07:05:22 51°18.141 2°51.036 21.1863 0.010017 0.053867 -3.020363
2011-08-22 07:05:27 51°18.152 2°51.015 21.1894 0.010017 0.053869 -3.020363
2011-08-22 07:05:32 51°18.163 2°50.994 21.1777 0.010017 0.053871 -3.020363
2011-08-22 07:05:37 51°18.174 2°50.973 21.1936 0.010017 0.053873 -3.020363
2011-08-22 07:05:42 51°18.185 2°50.953 21.1945 0.010017 0.053874 -3.020363
2011-08-22 07:05:47 51°18.197 2°50.932 21.1895 0.010017 0.053874 -3.020363
2011-08-22 07:05:51 51°18.206 2°50.916 21.1916 0.010017 0.053876 -3.020363
2011-08-22 07:05:57 51°18.22 2°50.891 21.1949 0.010017 0.053878 -3.020363
2011-08-22 07:06:02 51°18.231 2°50.871 21.1695 0.010017 0.05388 -3.020363
2011-08-22 07:06:07 51°18.243 2°50.851 21.1864 0.010017 0.053881 -3.020363
2011-08-22 07:06:12 51°18.255 2°50.832 21.1901 0.010017 0.053883 -3.020363
2011-08-22 07:06:17 51°18.268 2°50.813 21.187 0.010017 0.053883 -3.020363
2011-08-22 07:06:22 51°18.28 2°50.793 21.195 0.010017 0.053885 -3.020363
2011-08-22 07:06:27 51°18.293 2°50.775 21.1868 0.010017 0.053887 -3.020363
2011-08-22 07:06:32 51°18.305 2°50.756 21.2 0.010017 0.053889 -3.020363
2011-08-22 07:06:37 51°18.318 2°50.737 21.2021 0.010017 0.053891 -3.020363
2011-08-22 07:06:42 51°18.33 2°50.717 21.1824 0.010017 0.053893 -3.020363
2011-08-22 07:06:47 51°18.342 2°50.698 21.202 0.010017 0.053893 -3.020363
2011-08-22 07:06:51 51°18.352 2°50.682 21.207 0.010017 0.053895 -3.020363
2011-08-22 07:06:57 51°18.367 2°50.659 21.2134 0.010017 0.053897 -3.020363
2011-08-22 07:07:02 51°18.379 2°50.639 21.1927 0.010017 0.053899 -3.020363
2011-08-22 07:07:07 51°18.39 2°50.619 21.2039 0.010017 0.053901 -3.020363
2011-08-22 07:07:12 51°18.402 2°50.599 21.2012 0.010017 0.053902 -3.020363
2011-08-22 07:07:17 51°18.413 2°50.578 21.21 0.010017 0.053902 -3.020363
2011-08-22 07:07:22 51°18.425 2°50.558 21.2054 0.010017 0.053905 -3.020363
2011-08-22 07:07:26 51°18.434 2°50.541 21.2023 0.010017 0.053907 -3.020363
2011-08-22 07:07:32 51°18.447 2°50.516 21.2063 0.010017 0.053908 -3.020363
2011-08-22 07:07:37 51°18.458 2°50.495 21.199 0.010017 0.05391 -3.020363
2011-08-22 07:07:42 51°18.47 2°50.474 21.2126 0.010017 0.053913 -3.020363
2011-08-22 07:07:46 51°18.478 2°50.457 21.2058 0.010017 0.053913 -3.020363
2011-08-22 07:07:52 51°18.492 2°50.432 21.2048 0.010017 0.053915 -3.020363
2011-08-22 07:07:57 51°18.503 2°50.411 21.2093 0.010017 0.053917 -3.020363
2011-08-22 07:08:02 51°18.514 2°50.39 21.2055 0.010017 0.053919 -3.020363
2011-08-22 07:08:07 51°18.526 2°50.369 21.1942 0.010017 0.05392 -3.020363
2011-08-22 07:08:11 51°18.536 2°50.353 21.1957 0.010017 0.053922 -3.020363
2011-08-22 07:08:17 51°18.55 2°50.329 21.215 0.010017 0.053922 -3.020363
2011-08-22 07:08:22 51°18.562 2°50.31 21.2211 0.010017 0.053925 -3.020363
2011-08-22 07:08:27 51°18.575 2°50.291 21.2126 0.010017 0.053926 -3.020363
2011-08-22 07:08:31 51°18.585 2°50.275 21.2149 0.010017 0.053928 -3.020363
2011-08-22 07:08:37 51°18.6 2°50.252 21.2233 0.010017 0.053931 -3.020363
2011-08-22 07:08:42 51°18.612 2°50.232 21.2168 0.010017 0.053932 -3.020363
2011-08-22 07:08:46 51°18.622 2°50.217 21.2273 0.010017 0.053932 -3.020363
2011-08-22 07:08:52 51°18.637 2°50.194 21.2294 0.010017 0.053935 -3.020363
2011-08-22 07:08:57 51°18.649 2°50.175 21.2304 0.010017 0.053937 -3.020363
2011-08-22 07:09:02 51°18.661 2°50.155 21.2274 0.010017 0.053939 -3.020363
2011-08-22 07:09:07 51°18.674 2°50.135 21.2265 0.010017 0.053941 -3.020363
2011-08-22 07:09:12 51°18.685 2°50.115 21.2274 0.010017 0.053943 -3.020363
2011-08-22 07:09:17 51°18.697 2°50.095 21.2321 0.010017 0.053943 -3.020363
2011-08-22 07:09:22 51°18.709 2°50.075 21.2316 0.010017 0.053946 -3.020363
2011-08-22 07:09:27 51°18.72 2°50.054 21.2328 0.010017 0.053947 -3.020363
2011-08-22 07:09:32 51°18.732 2°50.034 21.2172 0.010017 0.053949 -3.020363
2011-08-22 07:09:37 51°18.743 2°50.013 21.2335 0.010017 0.053952 -3.020363
2011-08-22 07:09:42 51°18.755 2°49.992 21.2226 0.010017 0.053953 -3.020363
2011-08-22 07:09:47 51°18.766 2°49.972 21.2136 0.010017 0.053953 -3.020363
2011-08-22 07:09:52 51°18.777 2°49.951 21.2133 0.010017 0.053955 -3.020363
2011-08-22 07:09:57 51°18.789 2°49.931 21.2228 0.010017 0.053958 -3.020363
2011-08-22 07:10:02 51°18.801 2°49.911 21.2228 0.010017 0.053959 -3.020363
2011-08-22 07:10:07 51°18.814 2°49.892 21.2308 0.009914 0.053468 -3.020363
2011-08-22 07:10:12 51°18.827 2°49.873 21.2276 0.010017 0.053962 -3.020363
2011-08-22 07:10:17 51°18.84 2°49.855 21.2343 0.010017 0.053962 -3.020363
2011-08-22 07:10:22 51°18.853 2°49.836 21.2441 0.009914 0.053472 -3.020363
2011-08-22 07:10:26 51°18.863 2°49.821 21.2365 0.010017 0.053966 -3.020363
2011-08-22 07:10:32 51°18.879 2°49.8 21.2401 0.010017 0.053968 -3.020363
2011-08-22 07:10:37 51°18.892 2°49.782 21.2466 0.009914 0.053478 -3.020363
2011-08-22 07:10:42 51°18.906 2°49.762 21.2393 0.009914 0.05348 -3.020363
2011-08-22 07:10:47 51°18.919 2°49.745 21.2425 0.009914 0.05348 -3.020363
2011-08-22 07:10:51 51°18.929 2°49.731 21.2467 0.009914 0.053481 -3.020363
2011-08-22 07:10:57 51°18.945 2°49.709 21.2496 0.009914 0.053483 -3.020363
2011-08-22 07:11:02 51°18.958 2°49.691 21.2527 0.010017 0.053977 -3.020363
2011-08-22 07:11:07 51°18.971 2°49.672 21.2582 0.009914 0.053487 -3.020363
2011-08-22 07:11:12 51°18.983 2°49.653 21.2432 0.009914 0.053489 -3.020363
2011-08-22 07:11:17 51°18.996 2°49.634 21.2642 0.009914 0.053489 -3.020363
2011-08-22 07:11:22 51°19.008 2°49.614 21.2667 0.009914 0.05349 -3.020363
2011-08-22 07:11:27 51°19.02 2°49.595 21.2659 0.009914 0.053492 -3.020363
2011-08-22 07:11:32 51°19.032 2°49.575 21.2461 0.009914 0.053495 -3.020363
2011-08-22 07:11:37 51°19.043 2°49.554 21.2506 0.009914 0.053496 -3.020363
2011-08-22 07:11:42 51°19.054 2°49.533 21.2594 0.009914 0.053498 -3.020363
2011-08-22 07:11:47 51°19.065 2°49.512 21.241 0.009914 0.053498 -3.020363
2011-08-22 07:11:52 51°19.077 2°49.491 21.2681 0.009914 0.053499 -3.020363
2011-08-22 07:11:57 51°19.088 2°49.471 21.2316 0.009914 0.053501 -3.020363
2011-08-22 07:12:02 51°19.1 2°49.45 21.2541 0.009914 0.053503 -3.020363
2011-08-22 07:12:07 51°19.111 2°49.43 21.254 0.009914 0.053504 -3.020363
2011-08-22 07:12:12 51°19.123 2°49.41 21.2371 0.009914 0.053506 -3.020363
2011-08-22 07:12:17 51°19.135 2°49.39 21.2591 0.009914 0.053506 -3.020363
2011-08-22 07:12:22 51°19.148 2°49.371 21.2544 0.009914 0.053508 -3.020363
2011-08-22 07:12:27 51°19.16 2°49.352 21.2672 0.009914 0.053509 -3.020363
2011-08-22 07:12:32 51°19.172 2°49.333 21.2552 0.009914 0.053511 -3.020363
2011-08-22 07:12:37 51°19.185 2°49.314 21.2703 0.009914 0.053512 -3.020363
2011-08-22 07:12:42 51°19.197 2°49.295 21.2709 0.009914 0.053513 -3.020363
2011-08-22 07:12:47 51°19.21 2°49.276 21.2607 0.009914 0.053513 -3.020363
2011-08-22 07:12:52 51°19.222 2°49.257 21.2705 0.009914 0.053515 -3.020363
2011-08-22 07:12:57 51°19.235 2°49.238 21.2592 0.009914 0.053516 -3.020363
2011-08-22 07:13:02 51°19.247 2°49.219 21.2827 0.009914 0.053518 -3.020363
2011-08-22 07:13:07 51°19.259 2°49.2 21.2791 0.009914 0.053519 -3.020363
2011-08-22 07:13:12 51°19.271 2°49.18 21.2858 0.009914 0.053521 -3.020363
2011-08-22 07:13:17 51°19.283 2°49.161 21.2707 0.009914 0.053521 -3.020363
2011-08-22 07:13:22 51°19.294 2°49.14 21.2849 0.009914 0.053522 -3.020363
2011-08-22 07:13:27 51°19.305 2°49.12 21.269 0.009914 0.053524 -3.020363
2011-08-22 07:13:32 51°19.316 2°49.099 21.2705 0.009914 0.053525 -3.020363
2011-08-22 07:13:37 51°19.328 2°49.079 21.2765 0.009914 0.053527 -3.020363
2011-08-22 07:13:42 51°19.339 2°49.058 21.2775 0.009914 0.053528 -3.020363
2011-08-22 07:13:47 51°19.35 2°49.038 21.2757 0.009914 0.053528 -3.020363
2011-08-22 07:13:52 51°19.362 2°49.018 21.279 0.009914 0.05353 -3.020363
2011-08-22 07:13:57 51°19.373 2°48.998 21.282 0.009914 0.053531 -3.020363
2011-08-22 07:14:02 51°19.385 2°48.978 21.2821 0.009914 0.053532 -3.020363
2011-08-22 07:14:06 51°19.395 2°48.962 21.2796 0.009914 0.053534 -3.020363
2011-08-22 07:14:12 51°19.409 2°48.938 21.282 0.009914 0.053535 -3.020363
2011-08-22 07:14:17 51°19.421 2°48.919 21.2766 0.009914 0.053535 -3.020363
2011-08-22 07:14:22 51°19.433 2°48.9 21.2758 0.009914 0.053537 -3.020363
2011-08-22 07:14:26 51°19.443 2°48.885 21.2841 0.009914 0.053538 -3.020363
2011-08-22 07:14:32 51°19.458 2°48.862 21.2788 0.009914 0.053539 -3.020363
2011-08-22 07:14:37 51°19.471 2°48.844 21.2891 0.009914 0.053541 -3.020363
2011-08-22 07:14:42 51°19.484 2°48.825 21.293 0.009914 0.053542 -3.020363
2011-08-22 07:14:47 51°19.496 2°48.806 21.2851 0.009914 0.053542 -3.020363
2011-08-22 07:14:52 51°19.509 2°48.787 21.2783 0.009914 0.053543 -3.020363
2011-08-22 07:14:57 51°19.521 2°48.768 21.302 0.009914 0.053544 -3.020363
2011-08-22 07:15:02 51°19.534 2°48.749 21.3062 0.009914 0.053546 -3.020363
2011-08-22 07:15:07 51°19.546 2°48.729 21.2937 0.009914 0.053547 -3.020363
2011-08-22 07:15:11 51°19.555 2°48.714 21.303 0.009914 0.053548 -3.020363
2011-08-22 07:15:17 51°19.569 2°48.689 21.3028 0.009914 0.053548 -3.020363
2011-08-22 07:15:22 51°19.58 2°48.668 21.2908 0.009914 0.053549 -3.020363
2011-08-22 07:15:26 51°19.589 2°48.652 21.2924 0.009914 0.05355 -3.020363
2011-08-22 07:15:32 51°19.602 2°48.627 21.2752 0.009914 0.053552 -3.020363
2011-08-22 07:15:37 51°19.613 2°48.606 21.2869 0.009914 0.053553 -3.020363
2011-08-22 07:15:42 51°19.625 2°48.585 21.2993 0.009914 0.053553 -3.020363
2011-08-22 07:15:47 51°19.636 2°48.565 21.2887 0.009914 0.053553 -3.020363
2011-08-22 07:15:52 51°19.648 2°48.544 21.2924 0.009914 0.053554 -3.020363
2011-08-22 07:15:57 51°19.659 2°48.524 21.2836 0.009914 0.053556 -3.020363
2011-08-22 07:16:02 51°19.671 2°48.503 21.2989 0.009914 0.053556 -3.020363
2011-08-22 07:16:07 51°19.683 2°48.484 21.2963 0.009914 0.053557 -3.020363
2011-08-22 07:16:12 51°19.696 2°48.464 21.2871 0.009914 0.053558 -3.020363
2011-08-22 07:16:17 51°19.708 2°48.445 21.3073 0.009914 0.053558 -3.020363
2011-08-22 07:16:22 51°19.721 2°48.426 21.308 0.009914 0.053559 -3.020363
2011-08-22 07:16:27 51°19.734 2°48.406 21.2987 0.009914 0.053559 -3.020363
2011-08-22 07:16:32 51°19.747 2°48.387 21.3181 0.009914 0.05356 -3.020363
2011-08-22 07:16:37 51°19.76 2°48.368 21.317 0.009914 0.053561 -3.020363
2011-08-22 07:16:42 51°19.773 2°48.349 21.3168 0.009914 0.053562 -3.020363
2011-08-22 07:16:47 51°19.785 2°48.329 21.3282 0.009914 0.053562 -3.020363
2011-08-22 07:16:52 51°19.797 2°48.309 21.3207 0.009914 0.053563 -3.020363
2011-08-22 07:16:57 51°19.809 2°48.289 21.3126 0.009914 0.053563 -3.020363
2011-08-22 07:17:02 51°19.821 2°48.268 21.3158 0.009914 0.053565 -3.020363
2011-08-22 07:17:07 51°19.833 2°48.247 21.3095 0.009914 0.053565 -3.020363
2011-08-22 07:17:12 51°19.844 2°48.226 21.3278 0.009914 0.053566 -3.020363
2011-08-22 07:17:17 51°19.855 2°48.205 21.3132 0.009914 0.053566 -3.020363
2011-08-22 07:17:22 51°19.867 2°48.184 21.3123 0.009914 0.053566 -3.020363
2011-08-22 07:17:27 51°19.878 2°48.163 21.3234 0.009914 0.053567 -3.020363
2011-08-22 07:17:32 51°19.89 2°48.143 21.3185 0.009914 0.053568 -3.020363
2011-08-22 07:17:37 51°19.902 2°48.122 21.3 0.009914 0.053568 -3.020363
2011-08-22 07:17:42 51°19.914 2°48.102 21.3243 0.009914 0.053569 -3.020363
2011-08-22 07:17:47 51°19.926 2°48.081 21.3191 0.009914 0.053569 -3.020363
2011-08-22 07:17:52 51°19.938 2°48.061 21.322 0.009914 0.053569 -3.020363
2011-08-22 07:17:57 51°19.95 2°48.041 21.3259 0.009914 0.05357 -3.020363
2011-08-22 07:18:02 51°19.963 2°48.02 21.3298 0.009914 0.053571 -3.020363
2011-08-22 07:18:07 51°19.974 2°48 21.3245 0.009914 0.053571 -3.020363
2011-08-22 07:18:12 51°19.986 2°47.979 21.3165 0.009914 0.053571 -3.020363
2011-08-22 07:18:17 51°19.998 2°47.959 21.3265 0.009914 0.053571 -3.020363
2011-08-22 07:18:22 51°20.01 2°47.939 21.3319 0.009914 0.053572 -3.020363
2011-08-22 07:18:27 51°20.022 2°47.918 21.3238 0.009914 0.053572 -3.020363
2011-08-22 07:18:32 51°20.035 2°47.898 21.3261 0.009914 0.053572 -3.020363
2011-08-22 07:18:37 51°20.047 2°47.878 21.3178 0.009914 0.053573 -3.020363
2011-08-22 07:18:42 51°20.06 2°47.859 21.3288 0.009914 0.053574 -3.020363
2011-08-22 07:18:47 51°20.073 2°47.84 21.3187 0.009914 0.053574 -3.020363
2011-08-22 07:18:52 51°20.086 2°47.821 21.3383 0.009914 0.053574 -3.020363
2011-08-22 07:18:57 51°20.099 2°47.802 21.3226 0.009914 0.053574 -3.020363
2011-08-22 07:19:02 51°20.112 2°47.783 21.3391 0.009914 0.053575 -3.020363
2011-08-22 07:19:07 51°20.125 2°47.764 21.3338 0.009914 0.053575 -3.020363
2011-08-22 07:19:12 51°20.139 2°47.745 21.3513 0.009914 0.053575 -3.020363
2011-08-22 07:19:17 51°20.152 2°47.726 21.3472 0.009914 0.053575 -3.020363
2011-08-22 07:19:22 51°20.165 2°47.707 21.3407 0.009914 0.053576 -3.020363
2011-08-22 07:19:27 51°20.178 2°47.688 21.3553 0.009914 0.053576 -3.020363
2011-08-22 07:19:31 51°20.188 2°47.673 21.3543 0.009914 0.053577 -3.020363
2011-08-22 07:19:37 51°20.203 2°47.65 21.3599 0.009914 0.053577 -3.020363
2011-08-22 07:19:42 51°20.216 2°47.63 21.3492 0.009914 0.053577 -3.020363
2011-08-22 07:19:46 51°20.225 2°47.614 21.3429 0.009914 0.053577 -3.020363
2011-08-22 07:19:52 51°20.239 2°47.589 21.3457 0.009914 0.053577 -3.020363
2011-08-22 07:19:57 51°20.25 2°47.568 21.3538 0.009914 0.053578 -3.020363
2011-08-22 07:20:02 51°20.262 2°47.547 21.3329 0.009914 0.053578 -3.020363
2011-08-22 07:20:07 51°20.273 2°47.526 21.3353 0.009914 0.053578 -3.020363
2011-08-22 07:20:11 51°20.283 2°47.509 21.3409 0.009914 0.053578 -3.020363
2011-08-22 07:20:17 51°20.297 2°47.486 21.3448 0.009914 0.053578 -3.020363
2011-08-22 07:20:22 51°20.309 2°47.466 21.3492 0.009914 0.053578 -3.020363
2011-08-22 07:20:27 51°20.322 2°47.446 21.3323 0.009914 0.053578 -3.020363
2011-08-22 07:20:32 51°20.334 2°47.427 21.3546 0.009914 0.053578 -3.020363
2011-08-22 07:20:37 51°20.347 2°47.408 21.3457 0.009914 0.053578 -3.020363
2011-08-22 07:20:42 51°20.359 2°47.388 21.3512 0.009914 0.053578 -3.020363
2011-08-22 07:20:47 51°20.372 2°47.369 21.3693 0.009914 0.053578 -3.020363
2011-08-22 07:20:52 51°20.384 2°47.349 21.3687 0.009914 0.053578 -3.020363
2011-08-22 07:20:57 51°20.396 2°47.329 21.362 0.009914 0.053578 -3.020363
2011-08-22 07:21:02 51°20.408 2°47.309 21.3708 0.009914 0.053578 -3.020363
2011-08-22 07:21:07 51°20.42 2°47.289 21.3516 0.009914 0.053578 -3.020363
2011-08-22 07:21:12 51°20.432 2°47.269 21.3708 0.009914 0.053578 -3.020363
2011-08-22 07:21:17 51°20.443 2°47.249 21.3633 0.009914 0.053578 -3.020363
2011-08-22 07:21:22 51°20.455 2°47.228 21.3687 0.009914 0.053579 -3.020363
2011-08-22 07:21:26 51°20.465 2°47.212 21.3652 0.009914 0.053579 -3.020363
2011-08-22 07:21:32 51°20.479 2°47.187 21.3687 0.009914 0.053579 -3.020363
2011-08-22 07:21:37 51°20.491 2°47.166 21.3675 0.009914 0.053579 -3.020363
2011-08-22 07:21:42 51°20.502 2°47.145 21.3656 0.009914 0.053579 -3.020363
2011-08-22 07:21:47 51°20.514 2°47.124 21.375 0.009914 0.053579 -3.020363
2011-08-22 07:21:52 51°20.525 2°47.103 21.3628 0.009914 0.053579 -3.020363
2011-08-22 07:21:57 51°20.536 2°47.082 21.3549 0.009914 0.053579 -3.020363
2011-08-22 07:22:02 51°20.548 2°47.061 21.3733 0.009914 0.05358 -3.020363
2011-08-22 07:22:07 51°20.559 2°47.04 21.3665 0.009914 0.05358 -3.020363
2011-08-22 07:22:12 51°20.571 2°47.019 21.3636 0.009914 0.05358 -3.020363
2011-08-22 07:22:17 51°20.583 2°46.998 21.3738 0.009914 0.05358 -3.020363
2011-08-22 07:22:22 51°20.594 2°46.977 21.371 0.009914 0.05358 -3.020363
2011-08-22 07:22:27 51°20.606 2°46.956 21.371 0.009914 0.05358 -3.020363
2011-08-22 07:22:32 51°20.618 2°46.936 21.3862 0.009914 0.05358 -3.020363
2011-08-22 07:22:37 51°20.63 2°46.916 21.3765 0.009914 0.05358 -3.020363
2011-08-22 07:22:42 51°20.642 2°46.895 21.3886 0.009914 0.05358 -3.020363
2011-08-22 07:22:47 51°20.654 2°46.875 21.3774 0.009914 0.05358 -3.020363
2011-08-22 07:22:52 51°20.666 2°46.855 21.3872 0.009914 0.05358 -3.020363
2011-08-22 07:22:57 51°20.678 2°46.834 21.3683 0.009914 0.05358 -3.020363
2011-08-22 07:23:02 51°20.69 2°46.814 21.3819 0.009914 0.053581 -3.020363
2011-08-22 07:23:07 51°20.703 2°46.794 21.3879 0.009914 0.053581 -3.020363
2011-08-22 07:23:12 51°20.715 2°46.775 21.3876 0.009914 0.053581 -3.020363
2011-08-22 07:23:17 51°20.728 2°46.756 21.3856 0.009914 0.053581 -3.020363
2011-08-22 07:23:22 51°20.741 2°46.737 21.3896 0.009914 0.053582 -3.020363
2011-08-22 07:23:26 51°20.751 2°46.722 21.3988 0.009914 0.053581 -3.020363
2011-08-22 07:23:32 51°20.767 2°46.7 21.3792 0.009914 0.053583 -3.020363
2011-08-22 07:23:37 51°20.78 2°46.682 21.4015 0.009914 0.053583 -3.020363
2011-08-22 07:23:42 51°20.793 2°46.663 21.3808 0.009914 0.053583 -3.020363
2011-08-22 07:23:46 51°20.804 2°46.648 21.4046 0.009914 0.053583 -3.020363
2011-08-22 07:23:52 51°20.819 2°46.625 21.3896 0.009914 0.053583 -3.020363
2011-08-22 07:23:57 51°20.832 2°46.606 21.3994 0.009914 0.053584 -3.020363
2011-08-22 07:24:02 51°20.844 2°46.587 21.3945 0.009914 0.053584 -3.020363
2011-08-22 07:24:07 51°20.857 2°46.568 21.3988 0.009914 0.053584 -3.020363
2011-08-22 07:24:11 51°20.867 2°46.553 21.4035 0.009914 0.053585 -3.020363
2011-08-22 07:24:17 51°20.882 2°46.53 21.4041 0.009914 0.053585 -3.020363
2011-08-22 07:24:22 51°20.895 2°46.511 21.4145 0.009914 0.053586 -3.020363
2011-08-22 07:24:27 51°20.907 2°46.491 21.399 0.009914 0.053586 -3.020363
2011-08-22 07:24:32 51°20.919 2°46.471 21.4117 0.009914 0.053587 -3.020363
2011-08-22 07:24:37 51°20.931 2°46.452 21.3811 0.009914 0.053587 -3.020363
2011-08-22 07:24:42 51°20.943 2°46.432 21.4079 0.009914 0.053588 -3.020363
2011-08-22 07:24:47 51°20.955 2°46.413 21.4073 0.009914 0.053588 -3.020363
2011-08-22 07:24:52 51°20.968 2°46.393 21.3941 0.009914 0.053589 -3.020363
2011-08-22 07:24:57 51°20.98 2°46.374 21.3974 0.009914 0.053589 -3.020363
2011-08-22 07:25:02 51°20.993 2°46.355 21.3957 0.009914 0.05359 -3.020363
2011-08-22 07:25:07 51°21.005 2°46.336 21.4114 0.009914 0.05359 -3.020363
2011-08-22 07:25:12 51°21.018 2°46.318 21.41 0.009914 0.05359 -3.020363
2011-08-22 07:25:17 51°21.031 2°46.299 21.4222 0.009914 0.05359 -3.020363
2011-08-22 07:25:22 51°21.044 2°46.281 21.4259 0.009914 0.053591 -3.020363
2011-08-22 07:25:27 51°21.056 2°46.261 21.4164 0.009914 0.053592 -3.020363
2011-08-22 07:25:32 51°21.068 2°46.242 21.4325 0.009914 0.053592 -3.020363
2011-08-22 07:25:37 51°21.08 2°46.221 21.4238 0.009914 0.053593 -3.020363
2011-08-22 07:25:42 51°21.091 2°46.201 21.4223 0.009914 0.053594 -3.020363
2011-08-22 07:25:47 51°21.102 2°46.18 21.4078 0.009914 0.053594 -3.020363
2011-08-22 07:25:52 51°21.112 2°46.158 21.4298 0.009914 0.053594 -3.020363
2011-08-22 07:25:57 51°21.123 2°46.137 21.3868 0.009914 0.053596 -3.020363
2011-08-22 07:26:02 51°21.133 2°46.116 21.4231 0.009914 0.053596 -3.020363
2011-08-22 07:26:07 51°21.144 2°46.095 21.3979 0.009914 0.053597 -3.020363
2011-08-22 07:26:12 51°21.156 2°46.074 21.4142 0.009914 0.053597 -3.020363
2011-08-22 07:26:17 51°21.167 2°46.053 21.4186 0.009914 0.053597 -3.020363
2011-08-22 07:26:22 51°21.178 2°46.032 21.4248 0.009914 0.053599 -3.020363
2011-08-22 07:26:27 51°21.19 2°46.012 21.4048 0.009914 0.053599 -3.020363
2011-08-22 07:26:32 51°21.201 2°45.992 21.4086 0.009914 0.0536 -3.020363
2011-08-22 07:26:37 51°21.213 2°45.972 21.4259 0.009914 0.053601 -3.020363
2011-08-22 07:26:42 51°21.225 2°45.952 21.441 0.009914 0.053602 -3.020363
2011-08-22 07:26:47 51°21.238 2°45.933 21.418 0.009914 0.053602 -3.020363
2011-08-22 07:26:52 51°21.25 2°45.913 21.4356 0.009914 0.053603 -3.020363
2011-08-22 07:26:57 51°21.262 2°45.893 21.4393 0.009914 0.053603 -3.020363
2011-08-22 07:27:02 51°21.274 2°45.873 21.4441 0.009914 0.053605 -3.020363
2011-08-22 07:27:07 51°21.285 2°45.853 21.4368 0.009914 0.053605 -3.020363
2011-08-22 07:27:12 51°21.297 2°45.833 21.4379 0.009914 0.053606 -3.020363
2011-08-22 07:27:17 51°21.308 2°45.812 21.4222 0.009914 0.053606 -3.020363
2011-08-22 07:27:22 51°21.319 2°45.79 21.4439 0.009914 0.053608 -3.020363
2011-08-22 07:27:27 51°21.33 2°45.769 21.4301 0.009914 0.053608 -3.020363
2011-08-22 07:27:32 51°21.34 2°45.748 21.4128 0.009914 0.053609 -3.020363
2011-08-22 07:27:37 51°21.351 2°45.729 21.4309 0.009914 0.053611 -3.020363
2011-08-22 07:27:42 51°21.361 2°45.71 21.4114 0.009914 0.053611 -3.020363
2011-08-22 07:27:47 51°21.371 2°45.691 21.4432 0.009914 0.053611 -3.020363
2011-08-22 07:27:52 51°21.381 2°45.674 21.4324 0.009914 0.053612 -3.020363
2011-08-22 07:27:57 51°21.39 2°45.658 21.4564 0.009914 0.053613 -3.020363
2011-08-22 07:28:02 51°21.399 2°45.643 21.4429 0.009914 0.053614 -3.020363
2011-08-22 07:28:07 51°21.408 2°45.628 21.4522 0.009914 0.053615 -3.020363
2011-08-22 07:28:12 51°21.417 2°45.614 21.459 0.009914 0.053616 -3.020363
2011-08-22 07:28:17 51°21.426 2°45.6 21.4569 0.009914 0.053616 -3.020363
2011-08-22 07:28:22 51°21.434 2°45.587 21.4645 0.009914 0.053617 -3.020363
2011-08-22 07:28:27 51°21.442 2°45.574 21.4553 0.009914 0.053618 -3.020363
2011-08-22 07:28:32 51°21.45 2°45.562 21.4663 0.009914 0.053618 -3.020363
2011-08-22 07:28:37 51°21.458 2°45.549 21.4597 0.009914 0.05362 -3.020363
2011-08-22 07:28:42 51°21.466 2°45.537 21.467 0.009914 0.053621 -3.020363
2011-08-22 07:28:47 51°21.474 2°45.525 21.4775 0.009914 0.053621 -3.020363
2011-08-22 07:28:52 51°21.481 2°45.512 21.4759 0.009914 0.053622 -3.020363
2011-08-22 07:28:57 51°21.488 2°45.5 21.472 0.009914 0.053623 -3.020363
2011-08-22 07:29:02 51°21.495 2°45.488 21.4831 0.009914 0.053624 -3.020363
2011-08-22 07:29:07 51°21.502 2°45.475 21.4753 0.009914 0.053625 -3.020363
2011-08-22 07:29:11 51°21.507 2°45.465 21.4731 0.009914 0.053626 -3.020363
2011-08-22 07:29:17 51°21.515 2°45.45 21.4849 0.009914 0.053626 -3.020363
2011-08-22 07:29:22 51°21.521 2°45.437 21.4737 0.009914 0.053627 -3.020363
2011-08-22 07:29:27 51°21.528 2°45.424 21.4813 0.009914 0.053628 -3.020363
2011-08-22 07:29:32 51°21.534 2°45.411 21.4904 0.009914 0.053629 -3.020363
2011-08-22 07:29:37 51°21.54 2°45.398 21.4785 0.009914 0.05363 -3.020363
2011-08-22 07:29:42 51°21.545 2°45.385 21.4822 0.009914 0.053631 -3.020363
2011-08-22 07:29:47 51°21.551 2°45.372 21.4714 0.009914 0.053631 -3.020363
2011-08-22 07:29:52 51°21.557 2°45.359 21.4854 0.009914 0.053632 -3.020363
2011-08-22 07:29:57 51°21.562 2°45.346 21.4849 0.009914 0.053632 -3.020363
2011-08-22 07:30:02 51°21.568 2°45.333 21.4802 0.009914 0.053633 -3.020363
2011-08-22 07:30:07 51°21.574 2°45.32 21.4222 0.009914 0.053634 -3.020363
2011-08-22 07:30:12 51°21.58 2°45.306 21.3916 0.009914 0.053635 -3.020363
2011-08-22 07:30:17 51°21.585 2°45.294 21.4467 0.009914 0.053635 -3.020363
2011-08-22 07:30:22 51°21.591 2°45.281 21.433 0.009914 0.053636 -3.020363
2011-08-22 07:30:27 51°21.597 2°45.268 21.4527 0.009914 0.053636 -3.020363
2011-08-22 07:30:31 51°21.602 2°45.258 21.4535 0.009914 0.053638 -3.020363
2011-08-22 07:30:37 51°21.609 2°45.242 21.4542 0.009914 0.053638 -3.020363
2011-08-22 07:30:42 51°21.615 2°45.229 21.4556 0.009914 0.053639 -3.020363
2011-08-22 07:30:47 51°21.621 2°45.216 21.4563 0.009914 0.053639 -3.020363
2011-08-22 07:30:52 51°21.627 2°45.203 21.4562 0.009914 0.053639 -3.020363
2011-08-22 07:30:57 51°21.633 2°45.19 21.4597 0.009914 0.05364 -3.020363
2011-08-22 07:31:02 51°21.638 2°45.177 21.4561 0.009914 0.053641 -3.020363
2011-08-22 07:31:07 51°21.645 2°45.164 21.4594 0.009914 0.053641 -3.020363
2011-08-22 07:31:12 51°21.651 2°45.152 21.4605 0.009914 0.053642 -3.020363
2011-08-22 07:31:17 51°21.658 2°45.139 21.4615 0.009914 0.053642 -3.020363
2011-08-22 07:31:22 51°21.665 2°45.127 21.465 0.009914 0.053642 -3.020363
2011-08-22 07:31:27 51°21.672 2°45.115 21.4671 0.009914 0.053642 -3.020363
2011-08-22 07:31:32 51°21.679 2°45.103 21.4672 0.009914 0.053644 -3.020363
2011-08-22 07:31:37 51°21.686 2°45.092 21.4695 0.009914 0.053644 -3.020363
2011-08-22 07:31:42 51°21.693 2°45.081 21.4762 0.009914 0.053645 -3.020363
2011-08-22 07:31:47 51°21.701 2°45.069 21.479 0.009914 0.053645 -3.020363
2011-08-22 07:31:52 51°21.709 2°45.058 21.4779 0.009914 0.053645 -3.020363
2011-08-22 07:31:57 51°21.716 2°45.047 21.4823 0.009914 0.053646 -3.020363
2011-08-22 07:32:02 51°21.724 2°45.036 21.4827 0.009914 0.053647 -3.020363
2011-08-22 07:32:07 51°21.732 2°45.025 21.4809 0.009914 0.053647 -3.020363
2011-08-22 07:32:12 51°21.739 2°45.015 21.4846 0.009914 0.053647 -3.020363
2011-08-22 07:32:17 51°21.746 2°45.004 21.489 0.009914 0.053647 -3.020363
2011-08-22 07:32:22 51°21.753 2°44.994 21.492 0.009914 0.053648 -3.020363
2011-08-22 07:32:26 51°21.758 2°44.985 21.4924 0.009914 0.053649 -3.020363
2011-08-22 07:32:32 51°21.766 2°44.974 21.4955 0.009914 0.053649 -3.020363
2011-08-22 07:32:37 51°21.772 2°44.964 21.4965 0.009914 0.05365 -3.020363
2011-08-22 07:32:42 51°21.778 2°44.954 21.5024 0.009914 0.053651 -3.020363
2011-08-22 07:32:47 51°21.785 2°44.945 21.5037 0.009914 0.053651 -3.020363
2011-08-22 07:32:52 51°21.79 2°44.935 21.5051 0.009914 0.053651 -3.020363
2011-08-22 07:32:57 51°21.796 2°44.925 21.5055 0.009914 0.053652 -3.020363
2011-08-22 07:33:02 51°21.802 2°44.916 21.5104 0.009914 0.053653 -3.020363
2011-08-22 07:33:07 51°21.808 2°44.907 21.5093 0.009914 0.053653 -3.020363
2011-08-22 07:33:12 51°21.813 2°44.897 21.5117 0.009914 0.053654 -3.020363
2011-08-22 07:33:17 51°21.819 2°44.888 21.5139 0.009914 0.053654 -3.020363
2011-08-22 07:33:22 51°21.825 2°44.879 21.5183 0.009914 0.053654 -3.020363
2011-08-22 07:33:27 51°21.83 2°44.87 21.5166 0.009914 0.053655 -3.020363
2011-08-22 07:33:32 51°21.836 2°44.862 21.5181 0.009914 0.053656 -3.020363
2011-08-22 07:33:37 51°21.841 2°44.853 21.5229 0.009914 0.053656 -3.020363
2011-08-22 07:33:42 51°21.847 2°44.844 21.5243 0.009914 0.053657 -3.020363
2011-08-22 07:33:47 51°21.852 2°44.836 21.524 0.009914 0.053657 -3.020363
2011-08-22 07:33:52 51°21.858 2°44.827 21.5318 0.009914 0.053657 -3.020363
2011-08-22 07:33:57 51°21.864 2°44.819 21.5282 0.009914 0.053659 -3.020363
2011-08-22 07:34:02 51°21.869 2°44.81 21.5349 0.009914 0.053659 -3.020363
2011-08-22 07:34:07 51°21.875 2°44.801 21.537 0.009914 0.053659 -3.020363
2011-08-22 07:34:12 51°21.88 2°44.793 21.5385 0.009914 0.05366 -3.020363
2011-08-22 07:34:17 51°21.885 2°44.784 21.5409 0.009914 0.05366 -3.020363
2011-08-22 07:34:22 51°21.89 2°44.775 21.5124 0.009914 0.05366 -3.020363
2011-08-22 07:34:27 51°21.896 2°44.766 21.6647 0.009914 0.053661 -3.020363
2011-08-22 07:34:32 51°21.9 2°44.757 21.6631 0.009914 0.053662 -3.020363
2011-08-22 07:34:37 51°21.905 2°44.748 21.6526 0.009914 0.053662 -3.020363
2011-08-22 07:34:42 51°21.91 2°44.739 21.6422 0.009914 0.053663 -3.020363
2011-08-22 07:34:46 51°21.914 2°44.732 21.6475 0.009914 0.053663 -3.020363
2011-08-22 07:34:52 51°21.919 2°44.721 21.6389 0.009914 0.053663 -3.020363
2011-08-22 07:34:57 51°21.924 2°44.711 21.6329 0.009914 0.053663 -3.020363
2011-08-22 07:35:02 51°21.929 2°44.702 21.6372 0.009914 0.053664 -3.020363
2011-08-22 07:35:06 51°21.933 2°44.694 21.6378 0.009914 0.053665 -3.020363
2011-08-22 07:35:12 51°21.938 2°44.684 21.6284 0.009914 0.053665 -3.020363
2011-08-22 07:35:17 51°21.943 2°44.674 21.6356 0.009914 0.053665 -3.020363
2011-08-22 07:35:22 51°21.948 2°44.665 21.6356 0.009914 0.053666 -3.020363
2011-08-22 07:35:27 51°21.953 2°44.656 21.6326 0.009914 0.053666 -3.020363
2011-08-22 07:35:32 51°21.958 2°44.646 21.629 0.009914 0.053666 -3.020363
2011-08-22 07:35:37 51°21.963 2°44.637 21.6396 0.009914 0.053667 -3.020363
2011-08-22 07:35:42 51°21.969 2°44.627 21.632 0.009914 0.053668 -3.020363
2011-08-22 07:35:47 51°21.974 2°44.617 21.6311 0.009914 0.053668 -3.020363
2011-08-22 07:35:52 51°21.98 2°44.607 21.6377 0.009914 0.053668 -3.020363
2011-08-22 07:35:57 51°21.986 2°44.597 21.6263 0.009914 0.053669 -3.020363
2011-08-22 07:36:02 51°21.992 2°44.587 21.6356 0.009914 0.053669 -3.020363
2011-08-22 07:36:07 51°21.998 2°44.576 21.6311 0.009914 0.053669 -3.020363
2011-08-22 07:36:12 51°22.004 2°44.566 21.6383 0.009914 0.05367 -3.020363
2011-08-22 07:36:17 51°22.01 2°44.556 21.6364 0.009914 0.05367 -3.020363
2011-08-22 07:36:22 51°22.016 2°44.546 21.6346 0.009914 0.053671 -3.020363
2011-08-22 07:36:27 51°22.021 2°44.537 21.6324 0.009914 0.053671 -3.020363
2011-08-22 07:36:32 51°22.027 2°44.527 21.6379 0.009914 0.053671 -3.020363
2011-08-22 07:36:37 51°22.033 2°44.518 21.6463 0.009914 0.053672 -3.020363
2011-08-22 07:36:42 51°22.039 2°44.509 21.6423 0.009914 0.053672 -3.020363
2011-08-22 07:36:47 51°22.045 2°44.499 21.6482 0.009914 0.053672 -3.020363
2011-08-22 07:36:52 51°22.05 2°44.49 21.6443 0.009914 0.053673 -3.020363
2011-08-22 07:36:57 51°22.056 2°44.481 21.6515 0.009914 0.053674 -3.020363
2011-08-22 07:37:02 51°22.061 2°44.472 21.6507 0.009914 0.053674 -3.020363
2011-08-22 07:37:07 51°22.067 2°44.463 21.6455 0.009914 0.053674 -3.020363
2011-08-22 07:37:12 51°22.072 2°44.454 21.6479 0.009914 0.053675 -3.020363
2011-08-22 07:37:17 51°22.077 2°44.445 21.6497 0.009914 0.053675 -3.020363
2011-08-22 07:37:22 51°22.082 2°44.436 21.65 0.009914 0.053675 -3.020363
2011-08-22 07:37:27 51°22.086 2°44.426 21.6533 0.009914 0.053675 -3.020363
2011-08-22 07:37:32 51°22.091 2°44.417 21.6455 0.009914 0.053675 -3.020363
2011-08-22 07:37:37 51°22.096 2°44.408 21.6509 0.009914 0.053676 -3.020363
2011-08-22 07:37:42 51°22.101 2°44.399 21.6429 0.009914 0.053677 -3.020363
2011-08-22 07:37:47 51°22.106 2°44.39 21.6509 0.009914 0.053677 -3.020363
2011-08-22 07:37:51 51°22.11 2°44.382 21.6557 0.009914 0.053677 -3.020363
2011-08-22 07:37:57 51°22.117 2°44.37 21.6563 0.009914 0.053678 -3.020363
2011-08-22 07:38:02 51°22.121 2°44.362 21.6528 0.009914 0.053678 -3.020363
2011-08-22 07:38:07 51°22.125 2°44.354 21.6494 0.009914 0.053679 -3.020363
2011-08-22 07:38:12 51°22.129 2°44.345 21.6561 0.009914 0.053679 -3.020363
2011-08-22 07:38:17 51°22.132 2°44.335 21.6524 0.009914 0.053679 -3.020363
2011-08-22 07:38:22 51°22.136 2°44.326 21.6559 0.009914 0.05368 -3.020363
2011-08-22 07:38:27 51°22.141 2°44.318 21.6621 0.009914 0.05368 -3.020363
2011-08-22 07:38:32 51°22.146 2°44.31 21.6562 0.009914 0.053681 -3.020363
2011-08-22 07:38:37 51°22.151 2°44.302 21.6564 0.009914 0.053681 -3.020363
2011-08-22 07:38:42 51°22.156 2°44.294 21.6643 0.009914 0.053681 -3.020363
2011-08-22 07:38:47 51°22.16 2°44.286 21.6558 0.009914 0.053681 -3.020363
2011-08-22 07:38:52 51°22.164 2°44.277 21.6661 0.009914 0.053683 -3.020363
2011-08-22 07:38:57 51°22.167 2°44.268 21.6593 0.009914 0.053683 -3.020363
2011-08-22 07:39:02 51°22.17 2°44.259 21.6614 0.009914 0.053683 -3.020363
2011-08-22 07:39:06 51°22.173 2°44.253 21.6607 0.009914 0.053684 -3.020363
2011-08-22 07:39:12 51°22.177 2°44.242 21.6671 0.009914 0.053684 -3.020363
2011-08-22 07:39:17 51°22.181 2°44.233 21.6721 0.009914 0.053684 -3.020363
2011-08-22 07:39:22 51°22.185 2°44.225 21.6747 0.009914 0.053684 -3.020363
2011-08-22 07:39:27 51°22.189 2°44.216 21.6685 0.009914 0.053686 -3.020363
2011-08-22 07:39:31 51°22.192 2°44.209 21.6652 0.009914 0.053686 -3.020363
2011-08-22 07:39:37 51°22.197 2°44.199 21.6732 0.009914 0.053686 -3.020363
2011-08-22 07:39:42 51°22.203 2°44.191 21.6681 0.009914 0.053687 -3.020363
2011-08-22 07:39:47 51°22.207 2°44.182 21.6691 0.009914 0.053687 -3.020363
2011-08-22 07:39:52 51°22.212 2°44.173 21.6697 0.009914 0.053687 -3.020363
2011-08-22 07:39:57 51°22.216 2°44.163 21.663 0.009914 0.053687 -3.020363
2011-08-22 07:40:02 51°22.22 2°44.154 21.6777 0.009914 0.053688 -3.020363
2011-08-22 07:40:07 51°22.224 2°44.145 21.6756 0.009914 0.053689 -3.020363
2011-08-22 07:40:12 51°22.229 2°44.135 21.6667 0.009914 0.053689 -3.020363
2011-08-22 07:40:17 51°22.233 2°44.126 21.6758 0.009914 0.053689 -3.020363
2011-08-22 07:40:22 51°22.237 2°44.117 21.6675 0.009914 0.053689 -3.020363
2011-08-22 07:40:27 51°22.241 2°44.109 21.6761 0.009914 0.05369 -3.020363
2011-08-22 07:40:32 51°22.245 2°44.102 21.6738 0.009914 0.05369 -3.020363
2011-08-22 07:40:37 51°22.249 2°44.094 21.6737 0.009914 0.053691 -3.020363
2011-08-22 07:40:42 51°22.253 2°44.088 21.6801 0.009914 0.053692 -3.020363
2011-08-22 07:40:47 51°22.257 2°44.082 21.6739 0.009914 0.053692 -3.020363
2011-08-22 07:40:52 51°22.26 2°44.076 21.6768 0.009914 0.053692 -3.020363
2011-08-22 07:40:57 51°22.264 2°44.071 21.6738 0.009914 0.053693 -3.020363
2011-08-22 07:41:02 51°22.268 2°44.067 21.6814 0.009914 0.053693 -3.020363
2011-08-22 07:41:07 51°22.271 2°44.063 21.6832 0.009811 0.053198 -3.020363
2011-08-22 07:41:12 51°22.275 2°44.059 21.679 0.009914 0.053694 -3.020363
2011-08-22 07:41:17 51°22.279 2°44.057 21.6851 0.009914 0.053694 -3.020363
2011-08-22 07:41:22 51°22.282 2°44.054 21.687 0.009811 0.053199 -3.020363
2011-08-22 07:41:27 51°22.286 2°44.052 21.6735 0.009914 0.053695 -3.020363
2011-08-22 07:41:32 51°22.289 2°44.05 21.6864 0.009914 0.053695 -3.020363
2011-08-22 07:41:37 51°22.292 2°44.048 21.6875 0.009811 0.053201 -3.020363
2011-08-22 07:41:42 51°22.294 2°44.046 21.6872 0.009811 0.053201 -3.020363
2011-08-22 07:41:47 51°22.296 2°44.046 21.6958 0.009811 0.053201 -3.020363
2011-08-22 07:41:52 51°22.298 2°44.044 21.7044 0.009914 0.053697 -3.020363
2011-08-22 07:41:57 51°22.3 2°44.042 21.6957 0.009811 0.053202 -3.020363
2011-08-22 07:42:02 51°22.303 2°44.04 21.7014 0.009914 0.053698 -3.020363
2011-08-22 07:42:07 51°22.308 2°44.037 21.6969 0.009914 0.053698 -3.020363
2011-08-22 07:42:12 51°22.312 2°44.035 21.7116 0.009811 0.053203 -3.020363
2011-08-22 07:42:17 51°22.318 2°44.031 21.7148 0.009811 0.053203 -3.020363
2011-08-22 07:42:22 51°22.324 2°44.027 21.7148 0.009811 0.053204 -3.020363
2011-08-22 07:42:27 51°22.33 2°44.021 21.7119 0.009914 0.053699 -3.020363
2011-08-22 07:42:32 51°22.335 2°44.014 21.7108 0.009914 0.0537 -3.020363
2011-08-22 07:42:37 51°22.341 2°44.006 21.7128 0.009914 0.0537 -3.020363
2011-08-22 07:42:42 51°22.346 2°43.998 21.7118 0.009811 0.053205 -3.020363
2011-08-22 07:42:47 51°22.351 2°43.988 21.6994 0.009811 0.053205 -3.020363
2011-08-22 07:42:51 51°22.354 2°43.98 21.6962 0.009811 0.053206 -3.020363
2011-08-22 07:42:57 51°22.359 2°43.966 21.6913 0.009811 0.053207 -3.020363
2011-08-22 07:43:02 51°22.364 2°43.954 21.6998 0.009811 0.053207 -3.020363
2011-08-22 07:43:07 51°22.368 2°43.942 21.6872 0.009811 0.053207 -3.020363
2011-08-22 07:43:12 51°22.373 2°43.929 21.6982 0.009811 0.053207 -3.020363
2011-08-22 07:43:17 51°22.378 2°43.916 21.6999 0.009811 0.053207 -3.020363
2011-08-22 07:43:22 51°22.382 2°43.903 21.6933 0.009811 0.053207 -3.020363
2011-08-22 07:43:27 51°22.387 2°43.89 21.6962 0.009811 0.053208 -3.020363
2011-08-22 07:43:32 51°22.392 2°43.877 21.7 0.009811 0.053208 -3.020363
2011-08-22 07:43:37 51°22.398 2°43.863 21.6946 0.009811 0.053208 -3.020363
2011-08-22 07:43:42 51°22.404 2°43.85 21.7017 0.009811 0.053209 -3.020363
2011-08-22 07:43:47 51°22.409 2°43.837 21.7017 0.009811 0.053209 -3.020363
2011-08-22 07:43:52 51°22.416 2°43.824 21.6885 0.009811 0.053209 -3.020363
2011-08-22 07:43:57 51°22.422 2°43.812 21.7059 0.009914 0.053705 -3.020363
2011-08-22 07:44:02 51°22.429 2°43.8 21.704 0.009811 0.053209 -3.020363
2011-08-22 07:44:07 51°22.437 2°43.788 21.7062 0.009811 0.05321 -3.020363
2011-08-22 07:44:12 51°22.444 2°43.776 21.7001 0.009811 0.05321 -3.020363
2011-08-22 07:44:17 51°22.451 2°43.764 21.7138 0.009811 0.05321 -3.020363
2011-08-22 07:44:22 51°22.459 2°43.752 21.713 0.009811 0.053211 -3.020363
2011-08-22 07:44:27 51°22.466 2°43.74 21.7184 0.009811 0.053211 -3.020363
2011-08-22 07:44:31 51°22.472 2°43.731 21.7143 0.009811 0.053211 -3.020363
2011-08-22 07:44:37 51°22.481 2°43.716 21.7184 0.009811 0.053212 -3.020363
2011-08-22 07:44:42 51°22.488 2°43.704 21.716 0.009811 0.053212 -3.020363
2011-08-22 07:44:46 51°22.494 2°43.694 21.7136 0.009811 0.053212 -3.020363
2011-08-22 07:44:52 51°22.503 2°43.679 21.7168 0.009811 0.053212 -3.020363
2011-08-22 07:44:57 51°22.51 2°43.667 21.7155 0.009811 0.053213 -3.020363
2011-08-22 07:45:02 51°22.517 2°43.654 21.71 0.009811 0.053213 -3.020363
2011-08-22 07:45:07 51°22.523 2°43.641 21.7222 0.009811 0.053214 -3.020363
2011-08-22 07:45:12 51°22.53 2°43.627 21.7213 0.009811 0.053214 -3.020363
2011-08-22 07:45:17 51°22.536 2°43.614 21.719 0.009811 0.053214 -3.020363
2011-08-22 07:45:22 51°22.543 2°43.601 21.7118 0.009811 0.053214 -3.020363
2011-08-22 07:45:27 51°22.549 2°43.587 21.7152 0.009811 0.053215 -3.020363
2011-08-22 07:45:32 51°22.557 2°43.575 21.7198 0.009811 0.053215 -3.020363
2011-08-22 07:45:37 51°22.563 2°43.562 21.7144 0.009811 0.053216 -3.020363
2011-08-22 07:45:42 51°22.571 2°43.549 21.7146 0.009811 0.053217 -3.020363
2011-08-22 07:45:47 51°22.578 2°43.537 21.7264 0.009811 0.053217 -3.020363
2011-08-22 07:45:52 51°22.586 2°43.525 21.7274 0.009811 0.053217 -3.020363
2011-08-22 07:45:57 51°22.594 2°43.513 21.7278 0.009811 0.053217 -3.020363
2011-08-22 07:46:02 51°22.602 2°43.502 21.7296 0.009811 0.053218 -3.020363
2011-08-22 07:46:07 51°22.609 2°43.489 21.7285 0.009811 0.053218 -3.020363
2011-08-22 07:46:12 51°22.616 2°43.477 21.7303 0.009811 0.05322 -3.020363
2011-08-22 07:46:17 51°22.623 2°43.465 21.7318 0.009811 0.05322 -3.020363
2011-08-22 07:46:22 51°22.63 2°43.453 21.7342 0.009811 0.05322 -3.020363
2011-08-22 07:46:27 51°22.636 2°43.442 21.7326 0.009811 0.05322 -3.020363
2011-08-22 07:46:32 51°22.641 2°43.431 21.7324 0.009811 0.053221 -3.020363
2011-08-22 07:46:37 51°22.646 2°43.42 21.7328 0.009811 0.053221 -3.020363
2011-08-22 07:46:42 51°22.651 2°43.409 21.7252 0.009811 0.053222 -3.020363
2011-08-22 07:46:47 51°22.656 2°43.399 21.7288 0.009811 0.053222 -3.020363
2011-08-22 07:46:51 51°22.659 2°43.391 21.7299 0.009811 0.053223 -3.020363
2011-08-22 07:46:57 51°22.664 2°43.38 21.7345 0.009811 0.053223 -3.020363
2011-08-22 07:47:02 51°22.668 2°43.371 21.7283 0.009811 0.053224 -3.020363
2011-08-22 07:47:06 51°22.671 2°43.364 21.7329 0.009811 0.053224 -3.020363
2011-08-22 07:47:12 51°22.675 2°43.353 21.734 0.009811 0.053224 -3.020363
2011-08-22 07:47:17 51°22.679 2°43.346 21.7356 0.009811 0.053224 -3.020363
2011-08-22 07:47:22 51°22.683 2°43.339 21.7274 0.009811 0.053225 -3.020363
2011-08-22 07:47:26 51°22.686 2°43.334 21.7328 0.009811 0.053225 -3.020363
2011-08-22 07:47:32 51°22.69 2°43.327 21.7404 0.009811 0.053226 -3.020363
2011-08-22 07:47:37 51°22.694 2°43.322 21.7341 0.009811 0.053227 -3.020363
2011-08-22 07:47:42 51°22.697 2°43.317 21.7424 0.009811 0.053227 -3.020363
2011-08-22 07:47:46 51°22.699 2°43.314 21.741 0.009811 0.053227 -3.020363
2011-08-22 07:47:52 51°22.702 2°43.31 21.7459 0.009811 0.053228 -3.020363
2011-08-22 07:47:57 51°22.704 2°43.308 21.7426 0.009811 0.053228 -3.020363
2011-08-22 07:48:02 51°22.705 2°43.307 21.7447 0.009811 0.053228 -3.020363
2011-08-22 07:48:07 51°22.706 2°43.306 21.7528 0.009811 0.053229 -3.020363
2011-08-22 07:48:12 51°22.707 2°43.305 21.7403 0.009811 0.05323 -3.020363
2011-08-22 07:48:17 51°22.708 2°43.305 21.7544 0.009811 0.05323 -3.020363
2011-08-22 07:48:22 51°22.708 2°43.306 21.7493 0.009811 0.05323 -3.020363
2011-08-22 07:48:26 51°22.708 2°43.307 21.7564 0.009811 0.053231 -3.020363
2011-08-22 07:48:32 51°22.708 2°43.308 21.7564 0.009811 0.053231 -3.020363
2011-08-22 07:48:37 51°22.709 2°43.308 21.7569 0.009811 0.053231 -3.020363
2011-08-22 07:48:42 51°22.709 2°43.309 21.7619 0.009811 0.053232 -3.020363
2011-08-22 07:48:46 51°22.709 2°43.309 21.7584 0.009811 0.053232 -3.020363
2011-08-22 07:48:52 51°22.709 2°43.309 21.76 0.009811 0.053233 -3.020363
2011-08-22 07:48:57 51°22.71 2°43.309 21.7597 0.009811 0.053233 -3.020363
2011-08-22 07:49:02 51°22.71 2°43.309 21.7551 0.009811 0.053234 -3.020363
2011-08-22 07:49:06 51°22.71 2°43.309 21.7586 0.009811 0.053234 -3.020363
2011-08-22 07:49:12 51°22.71 2°43.309 21.7569 0.009811 0.053235 -3.020363
2011-08-22 07:49:17 51°22.711 2°43.309 21.7668 0.009811 0.053235 -3.020363
2011-08-22 07:49:22 51°22.711 2°43.309 21.7689 0.009811 0.053236 -3.020363
2011-08-22 07:49:26 51°22.711 2°43.309 21.7668 0.009811 0.053236 -3.020363
2011-08-22 07:49:32 51°22.711 2°43.31 21.7639 0.009811 0.053236 -3.020363
2011-08-22 07:49:37 51°22.712 2°43.31 21.7718 0.009811 0.053237 -3.020363
2011-08-22 07:49:42 51°22.712 2°43.311 21.7555 0.009811 0.053237 -3.020363
2011-08-22 07:49:47 51°22.711 2°43.311 21.7731 0.009811 0.053237 -3.020363
2011-08-22 07:49:53 51°22.711 2°43.313 21.7703 0.009811 0.053237 -3.020363
2011-08-22 07:49:58 51°22.711 2°43.315 21.7762 0.009811 0.053238 -3.020363
2011-08-22 07:50:04 51°22.711 2°43.317 21.77 0.009811 0.053239 -3.020363
2011-08-22 07:50:09 51°22.711 2°43.318 21.7767 0.009811 0.053239 -3.020363
2011-08-22 07:50:14 51°22.711 2°43.32 21.7794 0.009811 0.05324 -3.020363
2011-08-22 07:50:18 51°22.711 2°43.321 21.7806 0.009811 0.05324 -3.020363
2011-08-22 07:50:23 51°22.711 2°43.322 21.7772 0.009811 0.05324 -3.020363
2011-08-22 07:50:28 51°22.711 2°43.322 21.7845 0.009811 0.05324 -3.020363
2011-08-22 07:50:33 51°22.711 2°43.322 21.7764 0.009811 0.053241 -3.020363
2011-08-22 07:50:38 51°22.712 2°43.321 21.7739 0.009811 0.053242 -3.020363
2011-08-22 07:50:42 51°22.712 2°43.319 21.7727 0.009811 0.053242 -3.020363
2011-08-22 07:50:47 51°22.713 2°43.318 21.7756 0.009811 0.053242 -3.020363
2011-08-22 07:50:52 51°22.714 2°43.316 21.7718 0.009811 0.053242 -3.020363
2011-08-22 07:50:57 51°22.715 2°43.314 21.7812 0.009811 0.053243 -3.020363
2011-08-22 07:51:02 51°22.716 2°43.313 21.7767 0.009811 0.053244 -3.020363
2011-08-22 07:51:06 51°22.717 2°43.312 21.78 0.009811 0.053244 -3.020363
2011-08-22 07:51:12 51°22.717 2°43.311 21.7781 0.009811 0.053245 -3.020363
2011-08-22 07:51:17 51°22.718 2°43.311 21.777 0.009811 0.053245 -3.020363
2011-08-22 07:51:22 51°22.717 2°43.312 21.7765 0.009811 0.053245 -3.020363
2011-08-22 07:51:26 51°22.717 2°43.312 21.778 0.009811 0.053246 -3.020363
2011-08-22 07:51:32 51°22.716 2°43.314 21.7762 0.009811 0.053246 -3.020363
2011-08-22 07:51:37 51°22.714 2°43.317 21.7896 0.009811 0.053247 -3.020363
2011-08-22 07:51:42 51°22.713 2°43.319 21.7955 0.009811 0.053247 -3.020363
2011-08-22 07:51:47 51°22.711 2°43.322 21.7935 0.009811 0.053247 -3.020363
2011-08-22 07:51:53 51°22.708 2°43.326 21.7943 0.009811 0.053249 -3.020363
2011-08-22 07:51:58 51°22.705 2°43.33 21.7975 0.009811 0.053249 -3.020363
2011-08-22 07:52:05 51°22.702 2°43.335 21.7986 0.009811 0.053249 -3.020363
2011-08-22 07:52:10 51°22.7 2°43.338 21.7953 0.009811 0.05325 -3.020363
2011-08-22 07:52:15 51°22.698 2°43.34 21.792 0.009811 0.05325 -3.020363
2011-08-22 07:52:20 51°22.697 2°43.342 21.8075 0.009811 0.05325 -3.020363
2011-08-22 07:52:25 51°22.696 2°43.343 21.7998 0.009811 0.053251 -3.020363
2011-08-22 07:52:30 51°22.697 2°43.343 21.7926 0.009811 0.053251 -3.020363
2011-08-22 07:52:36 51°22.697 2°43.342 21.7924 0.009811 0.053252 -3.020363
2011-08-22 07:52:40 51°22.698 2°43.342 21.7974 0.009811 0.053253 -3.020363
2011-08-22 07:52:45 51°22.7 2°43.341 21.8042 0.009811 0.053253 -3.020363
2011-08-22 07:52:50 51°22.701 2°43.34 21.8017 0.009811 0.053253 -3.020363
2011-08-22 07:52:54 51°22.703 2°43.338 21.7922 0.009811 0.053253 -3.020363
2011-08-22 07:52:59 51°22.705 2°43.337 21.8032 0.009811 0.053254 -3.020363
2011-08-22 07:53:04 51°22.707 2°43.335 21.7967 0.009811 0.053255 -3.020363
2011-08-22 07:53:09 51°22.71 2°43.333 21.7933 0.009811 0.053255 -3.020363
2011-08-22 07:53:14 51°22.713 2°43.333 21.7877 0.009811 0.053256 -3.020363
2011-08-22 07:53:19 51°22.717 2°43.331 21.7722 0.009811 0.053256 -3.020363
2011-08-22 07:53:24 51°22.721 2°43.331 21.7967 0.009811 0.053256 -3.020363
2011-08-22 07:53:28 51°22.724 2°43.331 21.7923 0.009811 0.053256 -3.020363
2011-08-22 07:53:34 51°22.729 2°43.331 21.8079 0.009811 0.053256 -3.020363
2011-08-22 07:53:38 51°22.732 2°43.332 21.8062 0.009811 0.053257 -3.020363
2011-08-22 07:53:43 51°22.736 2°43.333 21.8015 0.009811 0.053258 -3.020363
2011-08-22 07:53:48 51°22.739 2°43.335 21.8024 0.009811 0.053258 -3.020363
2011-08-22 07:53:53 51°22.742 2°43.336 21.7936 0.009811 0.053258 -3.020363
2011-08-22 07:53:58 51°22.744 2°43.338 21.8265 0.009811 0.053258 -3.020363
2011-08-22 07:54:02 51°22.745 2°43.338 21.8094 0.009811 0.053259 -3.020363
2011-08-22 07:54:07 51°22.745 2°43.338 21.8122 0.009811 0.053259 -3.020363
2011-08-22 07:54:12 51°22.746 2°43.338 21.8135 0.009811 0.05326 -3.020363
2011-08-22 07:54:17 51°22.746 2°43.338 21.8101 0.009811 0.05326 -3.020363
2011-08-22 07:54:22 51°22.746 2°43.337 21.8083 0.009811 0.05326 -3.020363
2011-08-22 07:54:27 51°22.746 2°43.336 21.8197 0.009811 0.05326 -3.020363
2011-08-22 07:54:32 51°22.746 2°43.334 21.8219 0.009811 0.053261 -3.020363
2011-08-22 07:54:38 51°22.745 2°43.332 21.8189 0.009811 0.053261 -3.020363
2011-08-22 07:54:43 51°22.744 2°43.329 21.8224 0.009811 0.053261 -3.020363
2011-08-22 07:54:49 51°22.743 2°43.326 21.8281 0.009811 0.053261 -3.020363
2011-08-22 07:54:54 51°22.743 2°43.323 21.8264 0.009811 0.053262 -3.020363
2011-08-22 07:55:00 51°22.743 2°43.321 21.8246 0.009811 0.053262 -3.020363
2011-08-22 07:55:05 51°22.743 2°43.318 21.8234 0.009811 0.053262 -3.020363